GFSNGP_prec_cthk_111.txt.gz
RH
92 97 93 96 95 98 96 96 93 98 97 97 97 97 97 96 90 83 77 70 67 68 72 72 68 67 66 66 65 66 70 78 78 75 74 81 78 71 73 77 84 87 90 96
98 96 93 96 96 96 98 97 97 95 96 97 98 98 97 99 97 89 79 77 76 71 67 65 69 69 71 72 69 70 70 78 81 79 78 78 77 73 70 72 76 87 87 96
97 92 91 86 97 97 95 96 96 92 95 91 85 84 84 82 80 79 74 71 70 70 69 66 66 71 73 74 75 74 71 71 80 80 79 81 84 93 86 89 93 99 98 97
96 97 92 97 97 96 89 88 89 87 86 83 82 80 78 78 78 78 75 70 66 65 65 65 65 68 73 76 76 77 77 78 78 80 84 85 88 89 95 80 84 96 92 85
97 93 97 96 96 95 95 94 91 88 83 77 76 80 75 76 75 76 71 68 66 64 63 61 60 60 63 62 66 72 77 78 80 83 85 86 85 95 96 91 97 98 98 99
97 93 96 96 94 93 88 92 88 85 82 82 80 78 76 77 76 72 68 66 64 63 62 59 62 59 58 56 56 52 57 72 80 82 81 83 87 94 94 92 89 97 99 99
97 93 94 94 98 90 85 89 87 85 84 82 77 77 76 70 67 65 64 63 61 59 57 57 56 54 53 50 49 50 50 50 54 68 78 81 85 90 93 94 92 96 95 94
92 87 90 86 82 77 82 84 83 82 80 79 78 76 73 72 70 69 68 64 62 60 57 57 56 52 51 50 52 51 50 53 54 53 54 63 78 86 91 94 95 95 97 97
89 89 87 82 74 74 76 77 78 78 78 79 78 78 78 74 71 70 66 63 61 61 60 59 57 55 53 54 55 55 53 53 53 54 55 56 59 63 70 83 91 93 95 98
83 85 81 77 75 76 78 77 78 79 79 77 77 75 75 73 71 69 66 63 61 59 58 57 55 53 52 52 52 51 50 49 48 50 52 55 58 60 61 64 67 78 88 91
83 81 79 78 77 77 78 75 74 75 77 76 73 72 70 69 68 67 65 63 61 58 57 55 54 52 50 49 48 48 47 46 46 47 47 49 51 56 60 64 69 71 69 73
87 79 78 79 79 77 77 76 75 73 73 73 72 72 72 71 70 69 66 65 64 62 60 59 57 55 54 52 52 51 51 51 50 50 50 50 50 51 53 55 58 64 69 71
86 83 81 80 79 76 73 73 73 72 71 71 70 69 69 68 68 67 65 63 62 61 60 61 60 59 58 56 54 54 54 54 54 55 55 55 55 55 55 56 57 58 59 62
85 83 83 77 73 66 65 65 66 66 67 67 66 65 65 64 63 62 60 59 56 54 52 51 52 53 54 53 53 53 54 54 55 56 57 58 59 60 62 63 63 63 64 65
84 81 75 70 67 67 69 71 72 71 68 66 65 64 64 62 59 55 50 47 43 39 36 36 36 38 39 39 39 40 40 42 45 47 49 51 53 55 59 61 62 64 66 67
71 71 69 65 64 70 72 72 68 67 65 63 59 54 48 43 41 41 41 40 40 38 36 35 35 34 35 37 37 38 38 39 40 40 41 44 45 46 48 49 49 50 53 55
69 70 67 66 71 73 70 64 62 60 53 47 44 43 42 40 39 39 38 37 36 37 35 32 30 30 29 31 33 34 34 34 36 37 38 39 42 43 44 44 44 44 45 46
74 78 79 78 74 70 63 54 47 43 42 41 40 40 39 36 33 33 33 33 33 34 33 31 30 28 28 27 28 31 32 33 34 35 36 39 40 42 44 45 45 46 47 48
80 81 79 76 66 57 51 45 42 40 38 37 36 35 35 34 32 32 31 32 32 33 33 31 29 27 26 24 23 26 29 30 30 31 32 35 38 40 41 44 47 49 50 51
79 75 66 56 49 43 39 38 38 38 38 37 36 36 36 37 36 36 36 34 32 31 29 27 26 23 21 20 20 22 25 25 25 27 28 31 34 36 38 40 42 46 48 48
60 48 42 40 37 38 40 41 41 41 40 41 39 38 35 32 32 32 34 33 33 33 31 29 26 24 23 22 22 25 28 28 28 28 29 30 33 35 37 38 38 39 41 43
39 39 37 40 42 42 43 42 41 40 37 35 34 33 34 35 37 37 38 38 38 36 33 30 28 27 26 25 26 29 29 29 31 32 33 34 36 39 41 40 39 39 39 40
38 39 41 42 41 42 40 39 37 36 37 38 39 40 40 41 43 42 42 43 42 39 36 32 30 28 28 28 30 32 32 33 34 35 36 37 39 40 41 41 41 40 39 38
37 40 40 40 39 38 39 41 42 42 41 41 41 41 41 43 44 46 47 44 42 40 38 35 33 33 34 35 35 37 39 39 40 39 38 39 39 40 41 40 40 41 40 40
40 39 39 36 37 37 37 42 45 46 46 47 46 44 43 41 39 37 39 42 42 40 39 38 39 40 40 41 41 43 43 44 44 44 43 42 44 45 44 44 44 44 43 42
39 37 35 35 35 36 39 42 47 51 53 52 50 48 42 39 36 33 34 40 40 40 41 42 44 46 47 47 48 47 47 47 47 46 47 47 49 49 49 49 47 47 45 44
38 36 34 34 35 39 42 47 54 56 54 51 45 44 43 39 36 35 36 38 41 44 46 48 50 51 52 53 53 53 53 52 53 53 52 52 51 51 51 50 49 49 48 47

GFSNGP_prec_cthk_114.txt.gz
RH
95 92 90 95 98 96 90 93 91 97 96 96 97 97 97 97 96 97 93 90 83 83 88 87 86 80 78 75 73 72 71 74 77 76 71 70 75 81 80 78 79 76 74 80
96 94 94 97 97 94 95 97 96 96 96 97 97 97 97 97 98 95 93 87 81 79 75 78 81 81 77 76 75 75 71 72 73 75 76 73 79 73 81 83 83 81 80 84
97 90 86 87 97 97 96 95 96 92 95 95 90 89 93 91 95 93 88 83 79 77 74 72 69 73 76 78 78 77 78 79 76 74 79 83 84 78 72 78 77 74 77 75
97 94 92 95 94 93 91 93 93 89 86 86 84 85 82 85 85 83 79 75 72 69 64 64 63 64 68 70 72 75 78 79 80 79 79 80 83 83 83 83 87 93 95 88
98 96 96 91 92 95 93 92 91 91 89 81 79 81 80 79 80 78 73 69 69 66 66 66 63 61 62 59 59 58 57 64 74 79 82 82 81 84 89 88 89 96 97 92
97 92 96 94 94 90 88 90 87 84 84 84 84 81 79 80 79 74 70 67 64 61 60 58 57 57 57 56 56 52 51 51 54 59 69 78 83 85 87 88 86 99 95 96
97 93 92 94 94 92 87 88 85 82 80 79 78 76 75 73 70 68 65 63 61 58 56 56 54 53 50 48 47 49 49 52 52 51 51 53 63 75 82 85 86 88 92 91
97 95 93 94 91 81 84 85 81 78 76 76 74 72 72 71 69 66 65 63 62 60 59 58 56 54 52 49 51 52 52 51 49 49 49 50 51 54 59 69 78 82 84 84
97 96 94 91 84 82 83 83 80 78 75 73 73 72 71 69 67 68 66 63 60 57 56 56 54 52 50 51 50 50 49 47 46 46 47 48 49 51 54 55 58 62 68 77
96 96 93 89 84 78 76 75 76 73 72 70 67 66 65 65 65 63 61 61 60 58 57 57 55 54 52 52 50 49 47 46 45 44 43 42 43 44 47 51 54 57 58 61
97 95 93 90 88 80 77 76 75 74 74 73 72 69 68 66 65 66 65 63 60 59 59 57 55 54 53 52 49 48 48 47 47 47 46 46 46 46 47 48 48 50 52 55
97 93 93 90 86 82 79 76 73 71 70 69 67 65 65 65 64 65 65 62 60 59 59 58 57 56 55 54 53 52 52 51 50 49 49 49 50 50 51 51 51 50 49 49
96 96 92 90 84 80 76 72 69 66 64 62 61 62 61 61 61 63 60 56 53 50 47 46 45 45 44 43 42 40 40 41 42 43 45 47 49 50 50 51 51 53 54 54
94 93 93 86 78 73 70 67 66 67 66 65 63 62 61 60 59 56 51 48 44 40 37 35 33 34 35 34 34 34 34 33 32 32 34 37 38 39 41 45 47 49 52 55
93 90 81 75 74 69 70 71 69 67 64 61 60 58 55 51 47 44 40 37 34 31 30 30 30 29 29 30 31 32 32 32 32 32 32 34 35 35 35 35 36 38 42 44
76 74 71 71 69 69 71 69 63 61 58 53 48 44 41 39 36 34 34 33 34 34 33 30 28 26 25 24 25 27 28 29 30 30 31 31 31 32 32 33 33 33 33 32
69 71 71 69 69 71 67 61 55 47 42 40 39 38 36 34 32 33 33 33 33 33 32 30 28 27 26 26 25 26 28 29 29 29 31 32 33 33 34 35 37 36 34 34
72 73 75 72 70 67 55 46 41 39 38 38 37 36 34 33 33 33 33 34 35 35 33 31 29 28 26 24 23 23 24 26 27 27 28 29 31 32 33 34 36 38 39 40
79 80 80 74 61 51 46 41 38 36 36 37 36 35 35 37 37 37 35 32 30 28 29 28 28 25 23 22 22 22 24 26 27 26 27 27 28 29 31 32 34 36 38 39
80 76 65 54 46 40 38 39 39 39 39 38 38 38 37 34 31 31 30 30 31 31 31 30 28 26 24 23 23 22 24 27 28 27 27 28 28 30 32 33 35 35 37 38
66 51 43 39 40 39 41 41 41 39 38 37 34 33 32 34 34 34 35 35 36 36 35 33 29 27 26 26 25 25 26 27 27 27 28 29 30 31 34 36 36 37 37 37
40 40 38 40 39 40 39 36 35 34 33 33 35 36 36 37 38 39 41 41 42 41 39 36 33 29 27 27 27 26 28 28 28 29 31 32 33 35 37 39 40 41 40 40
38 37 38 39 39 36 32 30 30 31 32 34 37 40 39 38 39 40 39 42 43 44 43 40 36 34 31 30 30 30 32 33 35 35 35 36 37 39 40 42 41 41 41 40
34 37 38 39 35 32 32 30 30 32 34 38 43 45 43 41 39 40 39 37 39 42 41 40 37 36 37 38 39 40 41 41 41 42 42 41 41 42 43 44 45 44 43 42
36 37 38 36 34 33 30 31 32 34 36 40 46 46 46 43 41 39 35 31 32 36 39 39 40 41 43 44 45 46 47 47 47 48 47 47 47 48 50 50 50 49 48 48
37 38 37 37 36 34 33 35 38 38 38 42 47 47 44 42 39 35 32 31 32 37 40 42 45 48 49 51 54 55 55 55 55 54 53 54 53 53 53 53 53 52 51 51
39 39 38 37 36 35 38 43 43 42 43 44 45 44 42 39 36 33 32 32 36 41 46 48 49 53 57 58 59 62 64 65 66 65 64 62 61 60 59 57 57 56 54 55

GFSNGP_prec_cthk_117.txt.gz
RH
95 90 84 94 94 94 87 85 86 95 93 95 97 96 96 97 97 97 96 93 98 97 96 98 98 96 93 86 86 86 81 81 80 80 78 80 77 78 87 80 71 73 77 73
95 95 91 96 97 92 93 89 92 94 94 96 97 97 97 97 97 96 95 94 91 89 94 95 97 94 90 87 82 78 81 77 78 80 83 79 79 79 78 76 74 76 77 79
89 97 93 94 96 97 95 95 92 90 95 96 95 95 96 97 97 95 92 87 86 82 80 78 77 79 83 83 78 77 77 79 77 76 75 75 78 82 80 80 80 86 86 82
88 98 95 96 96 97 94 95 93 91 90 83 84 85 88 89 87 85 84 85 84 77 70 68 68 65 65 63 61 63 66 72 76 77 79 81 80 82 81 83 86 84 81 81
93 95 97 96 96 94 89 88 87 87 87 84 81 82 84 82 78 73 70 69 68 65 64 64 61 60 57 55 54 53 52 52 54 59 68 77 81 83 81 83 82 84 85 85
95 95 95 95 96 97 95 90 91 87 85 82 84 78 78 76 72 71 67 65 63 62 60 57 57 55 50 48 48 47 50 51 49 50 50 52 57 66 77 83 84 86 89 88
94 94 95 96 97 97 95 91 91 86 83 80 75 75 74 72 69 66 63 60 59 57 55 54 52 51 47 46 46 46 47 47 47 48 48 49 50 51 53 60 70 81 83 83
94 95 95 97 98 92 90 92 89 85 82 77 77 78 77 75 72 70 66 63 61 59 55 53 51 51 49 48 48 47 46 46 45 45 46 48 50 51 52 52 52 54 59 69
96 96 97 98 98 96 93 88 85 82 78 75 73 73 72 71 70 66 64 64 62 58 56 53 53 53 52 51 49 48 48 48 46 46 44 43 43 43 43 44 46 48 50 51
97 97 97 97 95 91 89 86 82 79 76 73 71 70 68 67 65 63 62 60 58 57 55 54 53 53 51 51 49 48 46 46 45 44 43 42 43 44 44 44 43 42 42 45
97 97 97 98 96 92 86 81 80 78 75 73 72 69 67 66 64 62 59 57 56 55 55 53 52 50 48 46 44 45 44 43 42 43 43 44 44 44 45 46 46 45 45 45
95 93 95 96 96 91 85 79 76 73 69 66 64 62 62 61 59 56 53 50 47 44 41 40 40 40 39 37 34 33 33 32 32 33 35 37 39 40 42 43 44 45 45 45
96 96 94 95 92 88 81 76 70 64 61 60 58 58 57 55 54 50 46 42 39 36 34 32 31 31 31 30 29 29 27 27 27 26 27 28 28 28 29 31 34 38 40 43
96 96 96 93 84 78 74 69 67 65 62 58 57 56 53 48 42 39 36 33 30 29 29 27 26 25 24 24 24 24 24 24 24 24 24 25 25 26 26 26 25 26 27 29
97 97 91 86 81 75 72 71 67 62 58 55 49 43 39 36 34 32 30 29 28 28 28 28 27 26 25 23 22 23 23 24 24 24 25 25 26 27 27 27 27 26 25 24
87 86 83 80 77 71 72 70 61 56 47 41 38 35 33 31 29 29 30 31 31 31 30 28 26 24 24 23 24 24 26 28 28 28 28 29 30 30 31 31 31 31 30 28
74 72 72 72 71 74 70 59 45 41 39 36 34 34 33 32 32 32 33 34 33 32 30 28 27 25 24 24 23 23 24 25 26 26 26 27 28 29 29 29 30 30 30 30
73 73 77 76 73 68 54 45 40 38 37 37 36 35 34 35 36 35 33 30 29 28 29 29 28 26 25 23 23 23 24 25 26 26 26 27 28 28 29 30 30 31 31 31
79 80 81 81 69 56 46 41 39 39 37 37 36 35 34 33 30 30 30 30 31 32 32 32 31 28 26 25 25 24 25 26 27 26 26 26 27 29 31 32 33 33 33 33
81 82 75 60 49 41 39 40 38 36 35 33 30 29 29 30 34 35 35 36 36 36 37 35 33 31 29 27 26 25 25 25 25 25 26 27 27 29 31 34 35 35 35 35
76 63 48 40 40 40 40 37 34 32 29 27 26 27 30 32 35 36 38 38 41 39 40 39 37 35 32 28 27 26 26 26 26 25 26 27 29 31 32 35 38 39 39 39
47 41 39 40 40 38 36 33 30 28 26 28 29 30 31 34 37 39 40 40 37 38 40 41 40 37 34 31 29 28 28 29 30 32 33 34 35 36 37 38 39 40 41 41
40 38 38 38 37 36 32 31 30 29 31 32 36 37 36 36 39 40 38 37 35 34 37 38 38 37 35 33 34 35 36 37 38 38 38 39 40 41 41 43 44 44 44 44
36 35 37 36 37 36 35 36 36 34 35 40 41 41 39 37 39 42 41 38 34 32 32 35 36 38 39 40 43 44 45 47 47 47 47 46 44 45 46 46 48 49 49 49
36 36 36 37 37 39 38 38 35 35 38 43 44 43 39 38 41 42 40 36 34 31 31 35 39 43 45 47 50 53 55 57 58 58 59 58 57 54 53 52 52 52 53 53
39 38 38 39 39 40 41 40 38 39 42 45 45 40 37 40 44 42 39 36 33 33 35 39 43 47 50 54 58 61 62 63 65 66 67 67 67 66 65 63 61 59 57 57
41 39 39 40 41 42 43 42 40 43 47 47 43 39 40 44 42 38 34 31 31 34 37 41 46 52 56 60 63 65 67 68 69 70 71 73 74 75 74 74 73 71 68 63

GFSNGP_prec_cthk_120.txt.gz
RH
72 80 79 76 84 89 91 92 93 94 91 94 95 94 95 96 97 97 97 97 97 97 97 98 89 88 88 83 77 72 73 73 74 75 77 81 84 84 81 82 86 88 84 79
80 83 87 81 89 87 89 88 90 89 93 96 95 96 95 97 96 92 94 92 91 94 97 97 96 92 91 86 84 84 84 81 85 85 80 81 81 85 87 88 86 87 85 83
73 89 82 86 95 95 93 88 89 92 94 95 94 94 95 94 91 93 90 87 83 83 81 82 86 88 87 88 86 90 84 77 77 77 81 79 82 82 79 82 85 86 87 85
74 92 92 93 91 88 89 92 90 87 92 91 83 81 84 86 82 77 79 82 84 81 77 76 74 71 71 71 69 69 68 69 72 73 77 80 81 82 82 81 83 83 82 82
79 92 94 91 94 91 89 89 85 92 91 89 86 82 84 84 80 77 72 71 71 70 72 71 69 65 62 58 55 53 55 55 51 49 49 56 66 75 81 84 80 79 80 82
74 91 90 88 92 96 95 92 88 89 89 85 84 80 78 74 69 66 65 61 62 58 57 55 55 53 49 48 47 47 47 48 47 47 46 47 48 48 50 54 66 76 81 79
74 85 90 92 97 98 96 95 91 86 82 79 77 75 74 71 69 66 64 63 60 58 57 55 53 51 48 48 45 44 41 40 40 41 43 45 46 46 46 46 47 49 53 59
72 86 94 94 98 97 95 94 92 87 84 81 79 77 75 72 69 67 64 62 60 58 57 54 52 50 48 47 46 45 45 42 42 41 41 41 40 40 41 41 42 44 47 48
75 86 95 98 98 97 95 94 91 83 79 77 76 74 71 70 68 66 62 59 58 56 54 53 51 49 48 47 45 44 43 42 41 39 38 38 38 38 37 37 38 39 39 38
87 95 97 98 97 98 97 95 89 83 81 78 75 72 69 68 65 62 60 58 57 54 51 49 46 42 38 38 36 34 34 33 33 33 34 34 34 35 36 36 39 39 40 40
97 97 97 98 97 98 97 94 89 85 79 76 73 69 65 62 59 55 53 50 47 42 39 36 34 31 29 30 31 28 27 27 27 27 28 28 29 26 28 30 32 35 37 39
96 96 97 97 97 97 97 95 89 82 75 70 65 63 61 58 55 50 45 40 36 34 32 29 26 24 23 22 24 24 25 25 25 26 26 26 26 26 26 23 24 25 28 30
96 98 97 97 97 97 95 90 81 73 70 67 62 60 57 54 48 41 36 32 30 27 25 24 22 21 20 19 19 20 27 23 26 26 26 26 27 27 28 27 22 19 19 20
96 97 98 97 94 88 84 83 80 74 68 64 60 54 47 42 37 34 29 28 26 25 24 22 21 20 20 19 19 19 23 27 27 28 28 29 30 30 30 30 30 30 24 22
96 98 96 91 86 82 82 82 76 69 62 53 45 40 36 32 29 27 26 25 25 25 25 24 22 21 21 20 20 20 24 29 26 29 29 29 29 29 30 30 30 30 30 28
90 93 90 87 85 82 82 79 69 57 46 42 39 34 31 28 28 28 29 29 29 27 24 23 22 21 20 20 20 25 29 29 28 29 30 31 31 31 31 30 30 29 28 27
81 81 80 79 77 78 76 66 51 44 39 34 32 32 31 30 29 29 28 27 25 25 26 26 26 25 23 22 22 31 31 31 31 38 40 39 38 38 36 36 36 35 30 27
73 71 71 74 76 73 59 47 42 37 36 36 34 31 28 28 27 26 26 27 27 28 29 30 30 29 27 26 24 32 32 31 32 36 38 39 35 38 37 37 37 37 36 32
74 73 76 75 74 60 49 41 39 37 34 32 28 27 25 24 25 26 27 29 30 33 36 34 33 32 30 28 26 32 32 31 32 36 35 33 37 36 36 36 36 36 36 36
80 81 81 75 60 47 39 39 36 33 30 27 26 25 26 29 31 32 32 31 33 36 36 36 36 36 33 31 29 32 31 30 31 34 35 30 35 35 37 37 37 38 38 38
83 81 71 52 40 39 38 37 32 30 28 26 26 28 30 34 35 35 35 36 41 35 36 38 38 40 39 34 33 31 31 32 35 37 39 39 40 41 41 42 42 42 43 43
75 58 42 38 39 38 36 33 31 30 30 31 32 32 34 37 38 39 38 35 35 36 36 39 39 38 37 34 34 34 37 40 42 44 44 45 45 45 46 46 46 46 46 46
46 41 39 37 37 35 34 32 32 34 36 36 34 35 37 42 43 42 41 41 41 41 38 37 36 34 35 36 38 42 44 46 48 50 52 53 54 54 53 53 52 51 50 51
40 38 35 35 34 33 33 36 38 40 40 40 39 39 40 45 46 47 43 43 44 40 36 36 34 35 39 42 44 48 51 55 57 59 61 62 62 63 63 62 60 60 58 55
40 37 35 34 34 37 40 40 41 43 44 46 45 42 41 41 41 45 45 46 44 38 36 34 34 37 40 45 50 53 57 59 61 63 65 67 69 70 70 71 71 69 67 65
42 40 39 39 43 42 43 43 46 45 46 48 46 44 45 43 45 47 49 45 40 35 34 34 36 39 45 50 53 56 59 60 62 63 64 66 68 70 71 73 76 77 76 75
51 48 47 46 44 44 44 43 43 43 45 46 46 45 42 44 47 46 43 41 36 34 34 36 40 44 46 48 49 51 52 53 54 56 58 60 61 64 67 69 72 77 80 81

GFSNGP_prec_cthk_123.txt.gz
RH
55 51 57 62 70 71 79 84 89 86 85 86 89 90 91 92 92 94 96 96 97 97 97 97 88 86 83 82 88 92 94 87 83 84 79 80 86 83 73 72 72 79 82 75
61 56 60 76 74 75 81 81 80 77 85 87 90 90 92 92 88 85 86 85 92 95 96 94 96 91 91 90 84 85 75 74 71 70 74 75 71 71 72 82 81 81 79 78
55 59 62 76 78 80 80 77 80 81 84 86 87 88 86 87 82 84 83 86 82 82 84 87 86 82 73 75 82 75 72 72 65 66 71 67 75 78 77 79 79 78 82 84
53 68 75 78 74 76 80 81 78 80 82 84 84 83 76 73 77 76 75 72 79 79 78 77 77 78 78 71 66 62 55 54 62 66 68 73 74 72 74 79 78 76 76 78
56 58 81 82 78 79 83 86 82 81 80 83 85 82 80 75 75 72 70 69 64 62 63 69 65 63 63 64 66 66 64 64 59 57 53 49 47 50 58 68 73 77 77 75
54 62 71 85 81 84 87 89 84 85 83 86 87 83 75 70 67 63 58 57 55 56 53 48 47 47 47 45 45 45 48 46 47 47 43 42 42 45 46 45 47 49 51 60
57 56 71 71 85 90 94 92 88 89 87 81 79 77 73 69 67 63 60 57 56 53 49 46 45 44 44 42 39 39 38 36 35 34 33 34 35 36 37 38 39 40 42 43
52 59 74 80 86 94 92 92 93 91 87 81 78 76 71 68 66 63 59 58 56 53 50 49 46 44 43 41 41 40 38 37 37 36 36 36 36 34 32 32 33 33 33 34
64 72 79 83 86 91 97 96 95 93 89 82 76 73 71 68 66 62 59 56 54 51 48 43 39 35 33 32 32 31 28 27 27 27 27 28 28 29 26 26 29 30 31 33
68 73 74 78 86 96 98 97 96 92 88 81 76 74 72 69 64 58 54 50 46 41 34 31 29 27 27 26 24 25 24 23 22 22 21 20 21 22 23 19 23 26 24 26
80 88 91 94 97 98 97 97 94 92 89 84 78 73 69 64 58 52 47 40 34 30 27 26 25 23 22 21 21 20 19 19 19 20 20 20 22 20 22 19 16 16 16 21
82 86 95 96 97 97 97 97 96 93 89 83 76 68 64 59 52 43 36 32 29 26 23 21 20 16 15 14 14 16 20 20 20 21 21 21 22 27 27 23 23 22 19 16
78 89 94 97 97 97 97 96 91 85 81 77 72 64 57 48 41 35 29 26 24 24 23 23 18 15 14 14 14 15 24 24 24 28 29 28 28 29 28 32 32 27 26 24
78 89 96 97 97 96 91 85 84 82 78 72 62 54 44 38 32 28 26 26 25 24 21 18 17 17 17 16 16 16 20 27 27 27 28 28 28 30 34 34 34 33 30 26
86 92 95 95 91 86 82 85 81 76 69 60 49 40 33 29 28 28 27 26 26 24 20 19 19 18 18 17 17 19 28 28 28 28 31 32 37 38 38 38 37 37 36 32
90 93 95 93 90 85 84 85 79 69 56 47 39 33 32 32 29 25 24 22 23 22 22 22 22 22 20 19 19 27 29 29 30 30 39 39 39 39 38 38 37 37 36 33
80 85 87 87 85 84 85 80 67 55 50 41 33 32 29 25 24 23 22 22 23 24 24 24 24 24 23 22 22 31 32 37 35 40 40 39 38 38 37 37 36 36 36 34
76 78 78 80 80 82 78 61 50 45 37 35 33 29 26 24 25 25 26 27 28 28 30 29 28 27 27 26 26 32 35 38 38 37 36 35 34 34 34 34 35 36 35 35
74 75 75 77 77 70 54 50 44 38 35 31 28 25 23 22 24 27 28 29 31 36 39 33 30 30 34 32 29 32 35 37 37 34 34 34 34 34 35 36 36 37 38 37
76 75 73 73 72 61 51 40 37 35 32 28 25 24 24 26 27 29 29 32 40 39 35 34 34 36 40 37 33 32 38 37 36 35 36 37 38 38 39 40 40 41 41 43
79 79 79 76 63 51 39 36 37 33 30 27 27 29 30 31 31 32 35 44 46 36 34 36 40 42 46 41 35 38 37 37 37 38 40 42 44 46 47 48 48 48 47 47
81 79 73 61 46 35 38 36 35 31 29 31 32 34 36 40 43 43 42 42 42 40 40 45 49 47 40 35 34 37 38 40 42 45 49 51 53 54 55 56 56 56 56 55
78 71 51 39 37 37 36 34 32 32 34 35 37 39 42 43 44 47 51 50 43 44 44 51 48 40 35 32 33 39 42 47 50 53 56 60 62 63 64 64 63 63 63 63
72 44 39 37 34 33 31 31 32 35 37 39 40 41 42 46 49 54 54 48 43 46 46 49 43 36 33 32 38 44 49 52 54 56 58 60 61 63 67 68 67 67 69 69
47 40 37 34 32 35 37 35 38 41 42 48 49 46 44 45 48 49 47 45 48 48 45 45 37 32 32 35 43 46 48 50 52 56 56 56 56 57 58 61 66 68 67 71
49 45 42 40 41 44 45 42 49 51 51 54 55 54 50 51 52 52 48 50 50 46 40 35 32 30 34 37 38 40 46 47 48 48 48 50 53 57 59 61 63 67 70 69
55 54 53 50 49 53 55 57 59 61 57 54 54 57 55 56 55 51 53 51 45 38 33 30 30 34 36 38 39 41 42 45 46 47 46 51 54 56 58 62 64 66 71 75

GFSNGP_prec_cthk_126.txt.gz
RH
51 64 59 56 53 55 57 63 78 83 87 83 81 81 82 81 77 77 79 86 94 97 96 96 91 91 90 91 89 90 91 91 85 95 98 95 84 91 98 98 96 98 92 91
55 47 50 55 61 62 62 66 73 76 81 81 80 80 79 76 75 73 73 80 81 83 91 91 88 87 89 85 87 87 88 89 91 85 96 98 98 98 98 96 90 93 96 94
53 54 56 68 63 68 64 64 67 80 81 79 81 81 78 75 65 70 68 70 76 79 80 81 83 83 78 78 72 66 71 71 70 74 86 85 94 94 94 90 90 88 87 84
54 64 74 66 61 61 60 62 67 76 80 77 83 83 83 75 72 70 69 66 62 62 66 69 69 73 73 74 70 63 58 57 63 69 65 63 67 71 73 79 82 79 75 78
59 52 69 66 64 64 64 68 72 76 78 77 81 83 85 76 70 64 60 57 59 57 54 51 54 49 49 50 53 58 58 58 61 59 54 55 53 52 51 47 48 49 53 61
56 60 53 70 67 72 72 80 72 78 81 80 82 87 86 74 67 64 61 56 53 50 48 47 47 46 43 37 34 33 33 36 37 36 35 35 36 36 36 36 37 37 37 37
62 56 57 63 69 71 80 82 79 83 85 86 88 84 79 73 66 61 58 56 54 52 51 48 47 44 41 39 38 36 34 32 30 29 28 28 28 28 29 30 31 29 29 30
61 61 74 71 80 86 81 80 81 87 92 94 90 86 78 72 65 61 58 57 55 52 47 41 36 32 29 27 29 28 25 25 24 24 23 21 17 15 15 17 19 19 22 24
74 74 75 76 79 77 78 83 88 95 95 93 91 85 78 72 66 62 58 55 51 43 35 30 26 23 21 21 20 19 18 17 18 16 16 16 14 13 11 10 10 10 11 12
53 57 60 64 71 73 72 82 92 97 96 91 87 84 80 74 68 61 56 48 40 32 26 24 21 18 16 15 15 17 16 17 15 16 16 16 15 15 13 12 12 13 12 10
61 63 67 72 81 85 85 91 96 97 95 92 89 86 81 74 67 58 47 39 31 27 24 22 17 13 12 12 12 13 19 17 16 19 19 18 19 20 20 19 18 18 16 16
60 58 63 79 90 94 97 97 97 96 95 93 90 86 81 72 59 47 38 32 26 24 21 19 15 14 14 13 12 12 16 20 20 22 22 21 21 22 23 23 23 23 22 21
59 60 68 85 93 97 97 97 97 95 93 89 85 81 74 63 46 37 30 26 24 23 20 18 17 17 15 14 13 14 18 24 21 23 23 24 24 25 25 28 31 33 32 26
58 62 75 87 91 97 97 95 93 89 87 83 80 73 62 53 42 32 24 22 22 21 19 18 17 16 15 14 14 15 22 26 22 24 24 25 26 28 30 33 35 34 35 34
62 67 77 89 95 93 89 85 86 83 80 76 66 56 47 38 31 26 24 24 25 22 17 18 18 18 18 17 17 18 25 26 25 25 25 28 29 30 31 34 34 34 34 34
70 77 86 90 90 88 85 87 83 79 71 59 51 45 41 32 25 23 23 19 21 22 23 23 22 22 21 20 20 20 27 27 26 26 28 30 28 30 30 27 32 32 34 34
69 75 82 87 87 86 85 83 79 67 56 51 45 38 32 28 25 22 21 23 24 25 26 26 26 25 23 23 23 23 29 29 28 28 30 33 32 30 28 34 33 32 32 35
68 70 75 76 75 81 83 82 69 57 52 44 38 35 28 25 25 22 23 24 25 29 32 30 27 25 25 29 27 25 31 31 30 30 34 32 32 31 34 33 32 34 34 34
69 68 70 71 74 78 80 67 56 49 37 33 29 27 24 22 23 23 25 27 32 36 34 31 28 27 30 33 33 29 30 36 34 34 35 35 32 35 35 34 38 40 41 41
69 70 70 71 76 73 60 51 44 37 33 31 28 26 25 26 27 29 30 35 38 37 35 31 32 33 37 43 39 36 34 38 38 37 36 37 38 39 40 43 44 46 48 49
71 76 76 75 75 68 55 46 38 35 35 32 29 29 30 32 35 37 40 41 41 39 37 38 39 43 44 45 44 41 35 36 39 41 41 42 43 46 49 49 50 51 53 55
80 83 82 81 73 59 51 39 36 35 34 31 31 32 35 40 41 41 42 44 45 44 43 41 45 45 43 40 37 36 36 39 41 44 48 50 51 52 53 55 56 55 53 54
83 84 83 74 60 49 37 36 37 35 32 33 34 35 37 38 39 44 50 51 50 47 46 45 45 45 42 39 37 37 40 41 44 48 48 50 52 54 53 53 54 60 62 60
84 83 75 53 40 37 35 34 32 31 32 34 35 36 36 40 45 54 55 57 55 51 50 49 47 42 39 36 34 34 35 38 42 44 45 47 51 51 54 54 54 53 60 67
78 73 54 41 38 36 31 29 34 37 38 43 45 46 49 52 52 53 53 55 57 54 50 48 43 39 35 33 32 31 32 34 38 41 43 44 45 47 50 54 57 59 60 62
69 60 47 42 42 42 42 42 48 55 56 59 60 62 60 58 56 57 60 60 56 51 48 43 39 36 33 32 32 33 34 36 38 39 40 41 43 46 49 53 55 58 61 64
69 62 55 53 56 57 57 55 58 60 57 55 57 55 55 56 59 63 61 57 52 48 42 37 35 33 32 31 34 35 37 38 40 41 42 44 47 50 52 53 54 57 61 64

GFSNGP_prec_cthk_129.txt.gz
RH
63 45 60 76 85 73 74 65 69 73 73 78 82 81 81 82 79 72 68 62 76 79 84 87 89 88 82 85 91 94 98 99 96 99 95 85 74 81 94 90 94 97 98 98
75 39 38 49 65 60 56 61 67 69 74 75 80 80 81 80 75 75 63 68 61 71 75 74 85 86 80 73 71 73 83 91 93 92 94 82 87 78 85 94 92 96 98 99
72 42 56 63 49 56 63 68 66 69 68 79 83 84 84 83 80 75 67 65 62 58 60 67 65 70 75 72 68 65 65 68 65 67 67 70 70 78 89 95 97 96 96 93
78 47 65 66 72 65 68 66 62 68 72 77 81 85 86 84 80 70 64 60 55 56 57 54 55 50 49 50 56 56 54 56 54 49 50 46 49 48 57 63 63 70 75 81
79 57 53 55 58 61 66 69 60 66 72 79 82 87 87 85 80 73 63 59 52 48 47 48 47 48 45 36 34 31 32 33 35 38 40 39 34 33 35 39 40 45 49 51
55 64 67 64 64 66 66 77 66 66 72 79 86 91 92 84 80 69 62 57 54 51 48 45 41 38 36 38 33 33 32 32 28 23 21 19 21 24 26 27 28 29 28 26
57 66 64 60 61 61 71 70 68 70 69 75 88 93 95 84 78 70 60 56 55 51 45 40 36 33 31 30 30 29 26 22 21 17 14 13 12 11 11 11 12 13 14 16
78 75 70 59 65 76 75 71 75 76 81 83 88 96 93 86 79 70 63 58 55 47 39 32 27 24 23 23 22 19 18 17 17 16 14 11 10 10 9 8 8 8 8 9
76 75 69 70 72 68 64 62 65 71 81 92 97 96 91 85 78 71 66 60 51 41 33 26 21 17 16 17 18 18 15 17 19 19 19 19 17 16 14 12 12 11 11 10
78 76 72 68 66 60 62 69 74 79 79 95 97 92 89 84 79 74 68 57 44 34 27 21 16 13 12 11 14 18 17 19 21 20 20 20 21 20 18 18 18 17 17 16
67 63 57 58 61 66 71 78 82 88 87 93 94 91 89 85 80 73 61 50 38 31 23 17 14 12 13 13 14 15 17 16 17 19 19 19 20 20 22 22 22 21 20 19
54 46 48 53 56 65 75 85 91 94 97 97 96 93 89 84 76 64 53 44 33 24 18 16 15 15 15 15 16 16 17 18 18 20 22 21 22 22 26 27 28 28 25 23
42 47 48 54 61 72 82 89 94 96 97 96 95 92 86 76 63 54 47 38 28 20 18 17 16 16 16 16 16 17 19 21 19 20 22 24 23 22 22 24 27 32 32 27
48 47 57 62 65 78 86 92 96 95 95 93 87 83 74 62 55 47 41 32 28 21 17 17 19 19 19 18 17 18 21 24 22 22 23 24 22 22 22 22 22 25 31 29
50 50 57 66 75 87 90 92 93 93 88 85 81 69 58 49 43 37 34 32 25 20 20 22 21 20 19 19 18 19 21 25 24 24 25 24 24 24 25 24 29 31 30 31
52 57 66 75 81 86 85 84 85 84 81 74 61 51 47 43 38 32 26 24 25 28 29 27 23 21 20 20 20 19 21 25 24 25 26 26 25 23 23 25 26 27 30 32
57 65 71 75 81 83 80 83 83 80 69 60 55 49 44 38 32 27 28 28 27 29 29 25 24 23 23 23 24 23 22 25 27 26 27 27 26 26 25 26 26 26 29 31
63 66 69 72 74 77 76 79 81 71 58 53 48 43 38 35 31 28 24 24 29 31 30 29 28 28 29 28 28 28 29 28 31 30 30 29 30 30 30 31 31 32 32 33
63 66 70 73 72 73 76 78 75 61 55 48 40 34 31 27 25 24 25 29 34 36 35 34 33 34 34 33 33 35 36 35 32 32 34 37 38 36 35 35 36 35 35 36
66 68 69 71 71 74 77 73 57 54 49 40 34 31 28 28 28 29 33 39 40 40 38 35 36 39 41 40 42 42 38 36 34 34 38 41 39 37 36 37 39 42 44 44
68 69 73 73 75 79 76 62 55 48 40 36 34 31 30 31 34 36 39 43 43 41 40 43 43 43 43 43 43 39 36 37 37 40 42 41 40 39 39 42 46 49 49 49
74 79 85 85 84 83 72 60 52 43 36 34 33 33 35 41 42 42 42 42 45 48 49 50 46 43 43 42 40 37 37 37 39 41 40 39 39 39 40 42 45 48 49 50
81 85 87 87 86 78 63 54 43 35 35 35 35 35 36 39 40 40 44 52 53 52 51 48 45 44 43 41 39 36 35 35 33 32 34 35 38 41 43 44 46 47 49 53
83 87 89 88 81 63 48 39 35 35 34 34 34 35 36 40 45 51 53 51 51 52 51 47 48 46 44 40 35 33 32 31 28 30 31 33 36 39 41 43 45 47 51 54
79 81 80 76 63 44 38 36 33 31 32 35 40 46 50 53 52 49 46 48 52 54 51 51 47 44 39 34 33 30 28 28 29 30 33 36 38 40 42 44 46 48 50 54
74 72 69 63 51 43 39 36 38 44 50 53 57 59 57 54 53 51 52 53 56 55 52 47 42 36 32 30 28 27 27 28 29 32 35 38 40 43 46 47 49 50 53 54
75 72 66 62 58 56 54 51 55 59 60 60 58 57 57 54 53 55 55 58 56 49 46 40 35 31 30 27 26 27 29 31 34 37 38 41 45 48 49 50 53 57 58 59

GFSNGP_prec_cthk_132.txt.gz
RH
79 77 73 70 61 70 83 88 90 77 65 63 75 81 80 84 84 79 74 70 59 61 61 63 72 80 75 71 78 84 89 94 97 97 95 96 95 98 98 94 89 72 69 81
72 78 80 70 58 58 59 65 73 59 59 67 73 76 80 85 84 79 77 67 59 60 57 62 54 55 71 67 62 68 71 71 70 84 96 97 98 94 96 91 88 76 78 77
77 70 76 85 60 57 57 56 61 69 68 69 73 81 81 86 87 83 78 68 58 54 50 51 53 46 43 47 50 51 54 50 58 62 64 70 75 78 76 77 81 82 81 87
88 81 91 64 60 59 67 73 69 67 68 70 74 79 81 83 84 84 79 71 60 50 45 43 39 40 36 34 33 30 32 36 35 34 33 36 41 47 53 48 47 52 57 64
92 86 79 69 50 51 57 59 59 61 67 71 77 80 82 84 85 85 81 72 61 52 46 40 35 33 32 34 31 31 29 26 24 24 22 25 27 26 25 24 29 31 30 37
98 93 87 66 57 60 62 69 55 55 61 69 75 80 84 83 87 85 83 74 63 51 43 37 35 33 28 27 26 25 22 20 18 15 15 14 13 12 12 13 14 15 17 17
89 91 72 54 48 54 65 57 61 65 66 71 77 77 82 81 89 86 80 75 66 50 39 34 32 31 25 22 21 19 16 14 13 13 13 12 11 11 10 9 9 8 8 7
82 90 71 60 64 67 63 64 59 58 59 61 70 82 85 87 89 87 82 76 65 50 39 33 29 26 22 17 16 15 14 15 16 15 15 13 12 11 9 9 8 8 9 9
85 78 74 75 69 72 70 65 61 58 64 69 72 76 84 91 92 87 82 75 61 49 40 32 26 20 17 17 14 16 16 16 17 16 15 14 13 13 11 10 10 11 11 11
92 81 79 83 85 66 55 51 54 62 72 80 83 78 87 92 91 90 85 72 59 49 40 33 23 18 15 15 16 16 17 16 16 15 16 15 15 15 15 14 15 14 13 13
81 80 81 69 56 54 53 53 56 68 78 88 86 85 97 95 93 90 77 63 53 45 38 31 21 17 15 15 16 18 18 18 18 18 19 19 19 18 18 18 17 18 17 17
70 61 54 44 44 48 51 59 67 74 82 88 93 94 96 96 93 81 66 57 49 42 37 28 20 18 18 19 20 21 21 19 19 19 20 21 21 22 23 22 21 21 19 18
55 52 45 42 46 49 55 64 70 82 89 91 94 96 97 93 82 67 57 50 46 40 33 26 20 19 18 20 23 23 23 23 26 27 26 24 24 23 21 20 22 25 24 22
49 49 47 47 51 56 62 69 80 88 94 95 96 97 92 80 66 57 50 45 41 35 31 28 25 23 22 22 24 24 24 24 25 25 25 25 25 24 25 27 26 25 25 24
45 45 46 49 56 64 72 78 87 92 95 95 92 89 78 65 55 48 46 45 40 33 30 31 27 26 28 26 24 25 25 26 26 25 25 25 25 25 24 25 25 25 26 28
45 50 50 55 62 69 77 83 89 93 91 87 85 73 57 49 45 44 43 41 37 31 34 32 31 26 24 26 28 29 29 29 29 28 27 27 27 26 26 26 26 26 26 26
48 51 56 62 67 73 76 80 84 85 86 80 65 57 55 51 45 39 33 31 31 35 35 28 25 27 30 32 36 37 36 35 32 30 31 30 30 31 30 29 29 30 30 29
52 54 61 65 67 70 71 74 80 80 76 64 54 52 47 43 38 36 37 38 34 33 30 28 29 34 38 40 41 41 40 36 33 30 28 31 34 35 35 34 35 35 34 34
56 61 65 66 69 74 74 77 79 79 69 59 55 48 42 39 37 35 31 29 32 34 35 35 35 38 42 44 44 42 38 34 29 28 30 33 34 34 38 38 37 35 34 37
57 62 65 67 69 70 73 75 79 75 64 57 53 42 34 32 32 31 33 37 39 39 39 39 43 44 45 46 42 36 33 30 29 32 34 34 35 36 37 36 35 34 35 37
59 62 66 70 72 74 79 84 80 64 57 51 43 38 36 36 36 36 38 41 43 43 43 47 50 49 46 40 35 34 32 30 34 36 36 35 35 35 36 35 36 37 38 40
61 66 71 78 82 84 86 84 71 60 55 47 40 37 37 39 40 42 44 45 44 46 54 56 53 46 42 38 37 33 32 35 36 33 30 29 30 30 30 30 32 34 38 41
72 77 84 89 91 92 91 80 66 58 52 42 37 37 40 41 40 41 41 45 53 58 54 52 48 44 40 39 35 36 37 33 31 29 29 28 28 29 30 32 35 37 38 39
77 83 88 91 93 92 86 71 58 49 42 37 37 39 38 37 41 45 52 54 53 51 52 50 45 42 41 40 39 35 32 30 28 27 26 27 28 29 31 34 38 40 41 42
78 81 82 85 86 84 70 52 44 40 39 39 40 43 47 49 52 54 51 49 49 53 52 47 44 43 42 39 35 33 30 29 27 26 26 27 29 33 36 39 42 43 44 47
77 79 80 80 76 68 57 51 47 45 45 49 54 56 57 54 50 52 54 56 57 55 51 46 46 44 40 36 33 30 28 27 26 27 29 31 35 39 41 43 45 46 49 52
76 78 77 75 72 64 57 53 52 55 57 59 57 51 52 56 62 62 63 62 60 55 51 49 45 39 36 32 30 28 27 27 28 31 34 37 40 42 44 46 47 50 52 55

GFSNGP_prec_cthk_135.txt.gz
RH
57 71 76 80 82 80 82 72 83 64 71 75 77 62 61 65 68 69 69 71 66 59 53 50 53 46 43 51 49 51 57 65 74 95 97 97 97 96 97 98 91 85 96 81
58 54 61 69 72 76 74 61 63 67 61 62 66 65 65 66 66 67 69 71 70 61 52 47 42 45 35 35 38 41 39 40 45 55 73 90 90 96 97 98 98 99 98 91
54 48 56 70 68 69 74 66 67 71 64 74 73 67 68 70 67 68 69 69 70 64 53 45 35 35 36 33 32 31 34 36 36 34 34 44 54 60 72 73 76 88 95 98
59 62 78 66 71 71 77 66 71 73 75 74 66 67 69 71 69 68 68 69 68 66 55 43 35 31 30 32 32 33 31 28 27 33 30 27 26 33 31 34 38 42 50 58
79 75 71 71 73 76 75 55 55 54 66 65 65 65 67 67 67 70 70 71 68 66 56 45 35 33 30 27 27 28 32 28 24 20 16 18 19 17 14 19 19 21 25 27
96 95 95 74 74 78 69 63 55 56 58 64 67 70 67 65 67 68 72 72 71 63 53 44 38 34 29 27 25 19 16 15 13 13 14 14 13 11 10 10 11 13 16 15
98 97 87 70 74 72 68 55 56 61 62 59 58 57 59 62 67 69 75 72 73 63 50 43 40 37 31 26 23 19 15 13 13 13 13 13 12 12 11 11 11 12 12 13
93 95 83 69 74 75 69 67 65 63 59 58 54 57 61 61 64 81 81 77 71 60 50 43 40 38 33 24 22 18 15 15 15 15 14 12 12 12 13 13 13 13 11 11
83 83 78 78 80 79 78 77 70 60 51 53 59 64 70 71 70 84 88 83 71 57 51 46 43 39 34 25 18 15 14 16 17 17 16 16 16 15 15 15 15 15 14 12
95 90 88 86 84 85 76 67 52 49 52 55 66 73 78 73 80 93 92 83 71 59 52 47 44 40 33 23 18 17 17 18 19 18 18 17 17 18 18 20 21 18 14 13
96 91 88 88 85 79 55 45 45 49 56 64 72 76 76 78 91 95 89 79 65 56 52 48 43 38 30 24 20 18 18 19 18 18 17 18 19 18 18 20 23 20 18 16
90 80 74 63 66 55 42 46 49 53 60 69 77 82 89 89 91 88 81 71 63 56 50 46 39 35 29 24 21 21 21 22 22 22 22 21 20 19 19 20 22 21 17 18
76 69 59 58 55 45 46 50 53 57 66 75 85 88 90 90 88 82 73 61 55 51 47 39 34 29 29 28 25 25 24 24 27 28 26 25 23 20 18 20 21 20 20 20
62 55 59 56 51 48 51 57 62 67 75 83 90 92 92 93 83 70 59 50 48 45 41 38 35 32 32 30 30 29 30 34 36 35 30 28 26 23 22 22 20 19 19 19
54 51 47 50 49 49 58 65 70 77 85 90 92 93 93 82 74 66 56 52 49 45 44 40 34 33 31 29 32 35 37 36 35 33 32 31 29 27 26 25 23 22 22 21
48 47 46 50 51 54 64 70 78 84 89 93 94 92 80 70 58 50 49 48 45 42 44 38 32 34 37 36 35 38 39 38 37 36 33 31 32 33 33 34 33 33 33 33
47 46 49 50 54 61 68 74 82 86 90 86 85 80 63 54 52 50 47 42 40 41 39 38 40 34 33 34 38 41 42 41 38 32 29 29 30 30 30 31 33 34 34 35
41 44 48 54 59 65 72 73 78 80 81 82 76 64 59 53 47 44 42 40 46 50 45 37 36 33 33 39 46 49 46 42 37 31 29 28 27 28 30 31 31 30 29 28
43 49 55 60 65 69 68 69 74 77 79 75 67 58 54 47 43 41 42 44 44 42 40 37 35 35 41 48 51 50 44 38 32 30 29 29 30 30 31 31 31 30 29 28
50 54 60 63 67 69 71 74 80 80 77 71 64 56 51 44 39 37 37 42 43 41 41 41 41 47 51 53 52 45 36 31 29 27 28 29 29 30 31 30 29 28 27 27
52 56 59 62 65 68 71 73 77 81 77 70 57 50 49 42 40 41 43 43 44 45 47 45 47 57 57 54 44 38 32 30 28 28 27 28 29 28 27 26 25 24 24 25
54 56 59 64 69 72 75 79 85 84 73 62 54 52 46 43 42 44 45 46 50 48 45 50 59 60 55 47 40 35 34 31 30 31 31 30 29 26 25 24 24 24 25 28
60 65 71 77 81 86 90 93 92 81 71 62 57 53 46 43 43 44 48 48 48 50 55 60 57 55 49 42 38 37 33 34 34 33 32 29 27 26 25 25 26 28 30 33
66 70 75 80 84 89 91 92 86 76 67 60 51 44 41 43 45 46 49 55 56 55 52 53 57 52 45 42 39 37 39 36 34 32 29 27 27 26 27 28 30 33 36 38
69 74 78 82 85 87 88 87 80 63 50 44 43 44 47 50 55 60 61 55 48 49 54 61 55 48 45 44 43 40 36 34 32 29 28 28 28 28 30 33 36 39 40 41
72 77 80 86 87 87 85 77 64 55 52 51 54 57 60 61 59 55 54 55 58 64 66 58 51 50 48 44 40 36 33 31 30 28 29 28 30 32 35 38 40 41 42 43
75 81 83 83 85 81 74 64 58 54 49 47 47 53 58 61 64 67 69 71 71 69 61 55 54 49 44 39 37 33 31 30 29 30 30 32 34 37 40 41 42 43 44 46

GFSNGP_prec_cthk_138.txt.gz
RH
50 57 61 55 55 57 68 67 83 72 76 61 58 70 75 66 62 64 63 62 63 58 53 47 39 31 28 28 26 25 30 34 33 39 56 72 90 96 98 98 97 98 96 80
53 52 50 48 47 44 41 50 63 70 69 59 64 72 73 67 68 66 65 64 63 58 53 43 39 32 27 25 25 25 30 27 31 29 33 40 40 58 72 94 98 97 97 98
52 48 50 50 34 38 49 53 61 75 69 77 79 77 73 68 70 67 65 63 61 59 53 43 39 35 30 26 24 24 28 25 25 28 33 26 27 28 35 39 50 68 73 86
66 66 67 39 44 54 62 64 71 73 78 79 83 71 64 66 65 65 66 64 62 61 54 44 40 36 34 29 27 24 23 30 23 22 22 28 24 19 18 22 22 24 34 42
81 73 55 52 56 65 69 65 66 67 65 63 70 62 62 65 65 65 64 63 63 62 55 45 41 38 36 30 28 26 22 19 20 22 23 25 21 19 15 22 18 22 22 25
87 83 79 66 72 76 75 72 62 60 67 61 64 63 60 58 59 59 61 61 62 59 54 47 43 42 38 34 29 28 22 17 15 14 13 14 18 17 20 13 12 9 15 9
82 92 83 72 77 80 87 69 66 66 69 67 65 61 56 54 58 60 61 61 63 57 51 48 50 45 40 39 36 29 22 17 15 15 15 14 13 12 11 10 9 9 9 9
91 96 92 81 82 85 82 80 77 74 73 69 62 53 54 61 65 66 67 62 61 56 51 53 50 47 46 43 40 33 20 17 16 16 15 14 14 14 14 13 13 14 14 14
89 83 80 84 86 84 79 83 80 76 66 56 57 58 59 63 70 76 69 62 59 60 56 55 55 54 52 47 41 35 23 20 18 17 17 16 16 17 20 18 17 18 19 21
88 79 84 88 90 85 91 87 74 57 54 56 52 53 63 71 77 76 68 68 63 64 61 58 59 56 52 46 37 35 29 20 19 19 20 19 19 22 25 26 23 21 20 19
90 85 86 82 84 88 79 76 65 52 47 48 56 62 70 76 80 81 81 76 72 64 59 61 59 52 47 40 37 33 31 26 22 21 21 21 22 22 23 27 29 27 23 24
89 86 90 80 75 69 68 67 53 47 49 54 60 68 74 80 87 89 79 72 61 61 62 57 51 47 42 38 38 35 32 30 25 24 24 24 24 24 24 23 21 20 20 19
84 86 83 73 68 64 65 58 48 51 56 59 63 71 77 85 88 83 80 73 60 57 55 49 46 42 38 37 37 37 35 32 29 28 28 29 30 29 25 22 21 19 18 17
88 85 73 66 61 65 62 49 50 57 63 66 70 76 83 90 89 82 74 61 52 51 49 45 43 42 39 37 39 40 39 38 39 39 37 36 35 31 28 24 21 20 19 19
81 69 64 61 61 58 53 51 56 63 69 74 78 82 88 92 83 74 65 59 55 53 50 46 43 40 37 35 34 39 44 46 43 42 37 34 31 30 28 25 24 23 22 21
70 69 58 59 51 51 54 55 60 68 74 80 82 87 91 85 78 64 56 53 49 46 45 43 43 42 39 42 42 39 43 45 43 41 38 34 31 29 28 28 27 28 28 28
67 58 53 49 50 55 57 60 65 73 78 83 86 92 89 73 60 55 53 53 48 45 42 37 41 45 43 38 39 43 47 50 47 41 36 33 31 32 32 33 32 32 31 30
57 48 42 46 50 54 58 64 71 76 81 84 84 82 71 63 61 53 52 49 45 47 50 51 44 40 38 36 37 46 52 51 46 39 35 32 31 31 31 31 30 29 28 27
46 41 43 48 53 59 64 68 71 74 78 81 83 75 65 60 54 48 46 41 45 46 43 42 42 40 39 39 46 53 55 49 40 33 30 29 29 29 28 28 27 26 26 27
43 46 51 54 58 62 64 66 69 72 76 79 79 74 67 56 52 46 42 43 44 46 48 48 45 46 46 44 52 56 52 41 33 31 30 29 29 27 26 25 25 26 27 27
44 49 53 57 60 64 69 68 68 70 74 75 74 68 59 51 53 49 43 47 50 52 51 50 51 46 44 54 56 52 42 36 35 35 32 30 28 27 28 28 27 27 26 26
50 55 58 61 62 63 67 72 75 80 85 82 77 65 55 53 52 49 51 51 50 49 51 50 48 52 55 53 50 45 41 41 40 34 31 29 30 31 30 29 28 27 26 27
50 53 57 63 69 74 80 84 88 92 92 85 76 64 63 61 57 55 52 50 51 52 53 56 56 52 48 53 52 46 45 41 35 33 33 34 33 32 30 28 27 27 27 28
57 62 65 69 72 77 81 85 89 93 89 83 73 68 63 54 52 53 52 54 58 62 60 51 46 54 60 57 49 47 41 39 38 37 36 34 32 30 29 28 28 28 30 33
62 64 66 70 75 80 84 87 88 87 81 74 61 52 52 54 55 58 64 67 61 53 51 54 64 64 58 51 50 45 44 41 38 36 35 33 31 29 29 29 30 33 35 37
65 67 70 73 77 81 83 85 86 78 70 60 55 56 59 59 59 57 62 68 68 64 63 73 68 59 54 53 49 46 42 39 37 35 34 32 30 30 30 33 35 38 40 42
66 70 73 77 79 79 80 80 74 65 61 56 53 55 59 68 77 78 76 74 73 75 79 70 60 58 54 50 46 42 40 37 36 34 32 31 30 32 35 37 41 43 44 45

GFSNGP_prec_cthk_141.txt.gz
RH
45 47 45 43 45 42 46 45 58 34 41 38 54 67 74 73 72 74 67 61 59 59 55 49 41 31 26 23 23 22 21 22 22 27 29 32 37 56 71 90 96 97 97 97
47 45 43 44 44 40 36 36 37 39 44 52 63 75 77 73 81 76 67 63 61 61 56 50 42 33 28 24 25 25 22 22 22 22 26 23 27 31 36 43 62 73 85 94
44 46 49 45 40 42 40 44 50 54 54 69 80 86 84 86 79 69 65 63 63 61 56 52 43 35 30 26 25 28 24 22 23 20 20 25 21 23 22 31 35 44 52 55
54 65 58 40 38 38 45 44 58 61 63 77 82 85 85 78 71 63 62 64 62 60 57 52 45 37 32 29 27 31 27 23 19 21 20 25 22 12 14 13 17 23 30 35
76 65 49 41 41 52 63 62 62 66 65 74 78 76 74 68 68 61 61 61 58 58 56 49 44 39 35 32 32 34 33 24 18 15 14 14 20 22 15 15 11 14 18 21
80 78 66 45 56 68 78 71 72 72 74 76 74 73 68 65 65 59 55 55 56 54 52 47 43 40 37 38 40 40 35 27 20 14 13 13 13 14 14 11 11 10 10 14
75 79 62 52 68 84 90 76 78 82 82 83 78 73 68 64 57 54 58 60 60 54 47 44 46 44 44 47 43 43 38 34 25 17 15 15 15 14 13 13 13 13 12 11
71 77 69 65 79 88 85 86 87 89 91 89 83 74 61 54 57 59 61 65 62 50 42 46 46 55 51 52 53 50 44 37 33 22 17 18 22 22 18 16 16 17 17 17
60 59 63 73 78 78 84 86 85 91 85 76 58 57 60 55 57 60 67 68 59 46 48 52 55 62 59 60 54 47 44 39 34 30 20 20 25 28 28 27 26 26 26 26
63 58 71 80 86 86 90 94 92 90 83 68 59 57 56 59 64 71 72 67 59 54 58 61 62 65 65 55 49 44 41 42 39 32 28 23 25 30 31 30 29 28 28 28
63 63 79 79 87 87 86 86 81 70 63 56 50 51 57 63 71 76 76 72 66 66 65 60 64 58 51 49 46 43 42 40 39 39 34 27 26 27 30 30 31 31 31 29
64 70 82 82 89 86 80 74 70 65 58 51 51 54 60 69 76 80 83 77 71 60 61 67 56 52 49 47 42 42 41 40 40 38 36 36 34 31 31 30 29 29 27 28
74 79 84 89 88 79 71 72 66 64 53 51 54 60 66 73 78 84 83 76 70 68 54 52 50 48 49 48 42 39 40 46 48 46 45 42 39 38 37 35 33 30 25 22
78 79 86 90 89 76 71 68 67 55 51 55 62 68 72 76 82 83 84 76 66 57 53 51 50 50 49 46 42 44 43 42 47 50 48 45 42 40 38 34 28 25 22 21
78 81 84 83 76 73 65 65 55 52 54 59 65 71 77 82 85 83 77 62 57 57 52 49 46 45 46 44 42 40 43 49 50 48 46 43 41 39 36 32 28 25 22 20
78 78 78 74 75 65 57 51 54 55 58 64 70 76 81 83 80 76 69 60 56 55 54 51 49 50 52 48 48 48 43 42 47 49 47 44 41 38 33 29 26 26 25 23
80 80 71 74 64 53 50 54 54 56 62 69 74 79 84 83 76 72 60 54 54 52 51 47 44 45 52 49 44 42 39 41 50 53 50 45 40 33 30 28 26 25 25 25
83 76 71 63 46 47 54 54 57 62 68 74 77 81 85 81 69 64 59 56 56 53 50 46 51 52 44 41 39 38 41 49 55 54 48 39 34 31 28 26 25 24 24 24
81 75 58 44 46 51 53 58 63 68 72 74 77 82 82 76 64 57 53 52 51 52 48 46 45 47 48 44 43 44 41 53 58 51 41 36 32 30 28 27 27 26 26 25
69 52 45 45 51 55 58 61 64 67 69 72 77 79 75 71 63 60 53 50 50 49 48 50 53 53 50 47 45 43 50 59 54 42 38 38 35 32 30 29 28 27 27 27
50 46 48 52 53 57 59 61 65 67 68 71 73 75 73 68 66 55 55 58 57 54 54 55 54 49 47 47 50 50 55 53 46 44 43 38 34 32 31 29 29 30 30 30
43 48 52 55 57 59 62 63 64 69 73 78 81 81 74 66 56 53 52 57 59 61 60 57 52 51 53 54 51 51 57 52 47 45 40 36 35 33 33 34 34 32 31 30
52 54 56 56 57 59 63 68 72 76 81 84 84 79 73 63 57 58 63 68 65 59 58 57 59 60 52 48 57 60 55 50 47 43 40 39 38 37 37 35 33 32 32 31
51 53 56 60 62 64 67 71 75 80 84 86 82 79 74 69 65 63 58 58 59 63 68 65 54 53 60 67 63 57 53 52 47 45 43 41 40 38 36 34 34 33 32 31
57 60 62 62 64 67 71 75 79 82 84 85 84 76 64 56 57 60 62 63 65 65 66 65 62 70 72 65 61 57 55 50 49 46 43 41 39 36 35 35 34 32 33 36
61 64 66 67 69 71 75 79 80 80 81 77 69 62 57 56 56 58 63 70 76 78 75 70 79 74 66 64 59 57 52 50 46 44 41 38 37 36 36 34 33 35 38 42
65 68 68 69 71 73 75 76 76 75 71 65 60 58 59 62 67 73 80 83 84 84 84 84 74 67 62 59 56 52 49 45 43 41 38 37 36 35 34 35 37 41 46 48

GFSNGP_prec_cthk_147.txt.gz
RH
31 28 28 28 36 40 38 32 41 29 38 31 36 39 39 45 50 57 66 74 79 85 82 74 66 53 45 41 37 33 31 29 28 28 23 18 22 21 21 16 24 44 50 61
43 30 33 37 41 33 32 33 36 37 38 46 47 61 63 53 59 69 79 85 93 89 84 74 57 51 47 40 36 32 31 30 30 29 26 24 27 27 33 19 13 21 40 45
44 42 42 42 41 38 32 36 43 50 46 53 59 67 66 74 62 81 95 90 87 84 76 71 59 50 44 40 36 35 34 33 33 31 29 27 29 26 28 29 21 14 21 32
50 47 49 40 38 33 38 38 46 50 58 79 63 68 74 71 75 87 89 86 82 73 69 63 52 45 40 39 39 35 33 36 36 33 33 32 32 31 26 25 32 21 17 21
51 43 40 44 45 50 44 36 43 55 69 73 71 74 78 82 86 89 85 83 74 73 60 50 48 46 45 41 39 37 32 32 37 37 39 43 38 36 28 26 27 26 22 14
52 54 50 49 49 50 42 42 62 74 81 81 80 81 93 96 91 88 83 80 78 64 53 50 52 49 44 33 34 42 41 35 34 45 46 46 43 39 33 29 28 31 26 23
53 55 56 48 55 47 50 70 80 75 78 79 87 90 88 89 92 90 85 74 57 54 55 58 54 50 40 41 42 47 45 46 50 54 53 51 46 42 40 34 32 32 34 29
59 64 60 56 52 50 53 58 65 72 82 85 90 94 97 92 81 72 57 52 58 58 58 56 53 49 44 47 50 54 56 57 55 53 50 50 53 48 47 43 39 38 42 40
56 59 58 59 54 56 55 57 67 79 87 93 92 95 95 91 78 66 63 56 56 58 59 54 52 46 50 53 59 61 57 51 50 53 54 52 50 52 53 47 45 44 49 47
51 49 47 46 54 54 57 60 70 82 90 90 93 89 81 76 68 58 52 53 56 60 59 55 50 48 55 61 63 56 51 49 48 49 48 52 53 54 54 52 51 47 44 45
64 59 55 55 60 68 67 68 69 86 88 86 84 80 78 68 57 54 54 55 59 62 63 59 55 60 66 62 57 55 51 51 51 52 54 54 57 53 53 49 49 55 53 48
63 62 59 65 60 62 62 68 75 81 86 85 85 83 74 61 55 57 59 59 62 65 63 64 65 73 68 59 55 52 49 48 48 54 56 60 60 62 61 58 54 51 48 42
47 48 55 53 57 62 66 71 81 89 89 79 75 69 68 57 59 62 61 64 65 69 70 64 66 69 62 60 57 57 56 50 52 57 58 60 63 62 64 65 60 56 51 47
48 52 50 55 63 69 74 78 86 90 86 83 75 75 59 58 63 63 64 66 68 71 61 65 63 53 52 53 52 49 49 49 56 54 59 60 60 60 61 60 64 65 59 48
39 45 48 59 68 72 75 80 87 86 84 76 69 59 58 62 63 66 67 67 69 63 64 61 56 57 59 58 56 53 58 57 54 60 56 53 54 58 62 63 63 62 57 53
48 57 64 68 71 68 71 81 82 85 79 67 55 58 61 63 66 68 69 69 64 63 58 52 54 53 52 53 54 57 60 57 54 53 51 51 57 63 65 64 61 57 52 47
53 67 73 69 69 70 78 85 80 79 69 57 59 61 64 67 69 69 69 67 62 52 51 52 52 51 55 57 54 60 60 61 46 57 57 56 60 65 65 63 60 54 51 47
52 66 70 66 70 79 88 84 81 71 61 60 60 64 67 68 70 71 69 65 56 52 47 48 50 51 53 54 57 60 55 53 56 53 53 58 57 65 67 62 57 52 47 44
55 61 68 75 85 91 92 85 68 54 56 60 65 67 68 70 74 74 72 68 64 55 51 46 48 52 55 58 55 51 50 53 55 54 57 60 65 69 66 60 54 50 47 44
68 71 77 87 93 94 88 65 50 57 61 64 66 67 71 76 79 78 78 77 74 68 54 53 59 60 57 58 56 55 58 54 53 61 61 63 73 71 65 59 53 49 45 43
68 74 81 89 87 71 53 54 58 60 63 66 69 71 74 76 78 75 76 82 75 68 68 64 66 61 64 66 65 62 54 54 62 65 68 76 73 65 58 54 51 48 46 46
77 77 77 70 58 53 55 58 61 63 65 67 68 71 73 76 77 80 83 84 76 70 63 62 64 64 68 75 63 57 60 60 62 70 70 67 62 61 57 52 50 49 49 47
63 63 58 52 53 55 59 61 63 63 64 66 69 72 77 76 77 81 79 76 71 64 64 66 77 78 66 62 59 57 58 67 73 70 67 61 58 54 51 52 48 46 47 46
53 51 55 58 59 60 59 60 61 62 64 68 71 73 75 76 77 76 78 72 67 63 61 59 60 61 62 61 63 68 77 75 69 66 62 56 55 51 51 47 44 44 42 39
57 58 59 59 59 60 59 60 62 65 67 70 73 74 75 76 75 73 67 63 57 58 59 62 66 71 76 74 80 79 74 70 65 60 57 54 52 49 45 43 39 36 33 33
56 58 59 62 64 63 63 64 66 68 71 72 73 73 72 72 70 69 62 60 64 67 70 75 82 84 84 87 79 74 70 64 60 55 52 49 46 42 36 32 32 33 35 37
61 62 64 67 69 69 69 70 72 73 73 71 70 70 71 72 72 67 65 65 66 70 78 86 89 91 89 81 74 67 61 57 53 49 45 40 33 30 31 34 36 37 40 43

GFSNGP_prec_cthk_153.txt.gz
RH
49 44 43 48 50 53 56 59 63 47 37 34 33 36 40 42 48 56 61 69 74 71 71 71 85 88 81 77 70 64 58 44 34 32 32 32 32 31 26 17 17 15 12 14
59 47 38 34 38 37 34 32 31 30 35 30 43 49 55 55 56 60 64 73 70 75 77 77 79 74 73 70 66 58 51 39 36 37 37 38 36 33 28 24 20 17 14 17
68 50 50 54 48 45 40 38 39 45 38 45 52 53 52 55 56 60 64 68 69 83 87 83 77 72 70 67 60 51 46 44 41 36 34 31 33 34 33 30 27 24 22 23
69 61 72 51 38 38 41 46 43 47 53 52 51 47 47 57 59 64 71 76 80 84 84 77 75 75 71 57 49 41 39 38 34 32 32 34 35 36 39 37 36 37 32 29
80 77 58 47 46 46 53 50 55 59 63 62 57 54 54 55 56 67 74 80 80 78 79 81 79 61 52 49 45 44 38 30 30 35 34 35 37 42 43 42 44 45 40 33
77 70 65 48 44 53 57 66 63 60 59 54 51 58 53 52 65 71 75 79 80 81 80 66 59 58 55 54 46 40 39 31 37 39 39 46 50 48 46 48 54 51 47 40
63 68 59 46 38 53 65 66 68 59 52 49 46 44 47 55 68 75 78 83 82 80 74 67 64 61 55 44 43 43 39 37 43 46 50 50 49 50 50 53 52 54 52 45
74 77 74 47 44 55 54 61 60 55 53 44 46 52 50 56 75 80 78 77 76 72 63 62 59 51 54 48 47 44 41 43 48 51 51 48 49 51 53 57 57 54 52 48
74 75 68 70 66 66 69 75 63 56 54 45 51 51 56 63 78 81 77 75 75 68 59 55 52 53 58 52 49 46 47 53 54 50 50 52 49 49 49 50 52 52 51 49
72 69 69 79 75 72 75 67 67 62 58 45 48 51 57 68 75 80 81 79 71 61 64 59 55 57 56 52 49 50 56 55 51 51 51 55 55 58 59 59 59 58 57 54
72 72 65 68 66 61 58 55 63 62 57 55 50 54 62 68 78 83 83 73 65 61 65 60 57 58 55 53 51 56 58 52 51 50 54 54 56 60 63 64 61 58 55 55
83 73 72 65 63 67 70 70 70 61 64 55 54 57 68 78 87 88 78 70 63 61 60 61 61 59 55 53 56 61 52 50 48 50 53 55 60 62 64 63 60 59 59 59
62 58 55 55 56 51 53 55 62 61 65 54 61 60 73 87 89 85 76 71 63 58 59 62 65 59 56 58 60 52 51 49 49 56 56 62 61 66 66 61 58 58 62 61
40 40 40 38 41 45 49 58 57 70 59 61 64 64 76 89 87 79 75 65 57 58 58 64 64 61 54 55 52 47 46 48 51 53 56 55 62 65 58 58 63 62 63 63
39 41 42 44 42 45 50 53 61 64 61 64 65 63 72 87 85 76 65 59 58 58 63 65 63 54 52 47 43 45 46 54 54 52 54 56 59 62 59 59 62 66 66 64
40 43 45 48 45 42 43 50 50 58 68 69 66 69 78 88 82 71 62 61 59 62 64 64 58 53 48 42 45 49 50 52 54 59 56 56 57 60 59 61 64 66 67 66
48 48 51 48 47 51 47 67 70 73 75 72 71 81 88 86 78 69 64 63 64 63 64 63 56 48 41 42 45 48 51 53 55 55 57 60 60 57 59 64 71 70 70 70
53 49 46 48 50 49 50 56 77 81 76 74 83 92 88 77 73 65 66 65 63 65 68 61 54 48 47 45 46 50 53 54 55 55 55 56 60 63 65 71 70 69 71 69
59 64 63 56 47 48 54 57 72 79 76 85 95 92 81 69 64 67 67 65 67 70 68 61 55 55 55 49 50 50 56 59 61 65 68 68 70 66 68 69 71 71 69 65
46 48 53 58 66 68 70 76 82 84 90 98 93 85 68 65 68 69 68 71 74 72 66 62 63 61 49 48 52 56 59 59 55 54 60 65 58 59 63 73 73 69 64 60
58 58 59 59 66 79 88 90 87 95 98 90 74 64 66 69 70 72 72 74 73 70 65 65 64 55 48 51 52 48 47 49 51 56 52 52 57 67 73 72 69 65 61 58
67 68 74 76 84 87 87 90 97 96 79 64 63 67 69 71 72 73 75 76 72 69 70 70 61 52 50 49 48 52 53 52 46 47 53 65 73 73 71 69 64 61 57 50
75 75 73 73 77 82 87 88 80 67 63 63 66 69 69 71 74 74 75 75 72 71 70 64 56 52 53 52 53 52 50 50 55 65 75 77 75 70 65 60 55 49 42 33
83 76 75 75 75 75 72 68 63 63 65 67 67 68 70 72 74 75 76 75 74 72 68 65 61 59 56 56 58 61 63 67 77 78 76 73 67 61 54 47 37 27 24 26
77 67 64 61 58 58 60 63 65 65 65 66 68 70 71 75 76 74 71 72 74 74 72 70 67 62 64 67 69 75 80 82 77 74 69 61 53 46 35 25 24 25 27 29
72 69 66 63 63 64 64 64 64 66 68 69 71 72 75 74 72 72 74 78 80 79 76 71 67 69 72 79 87 89 85 77 70 62 53 45 36 25 24 25 27 28 29 30
66 66 65 64 63 63 65 66 66 68 69 71 72 74 75 74 76 80 82 85 87 84 76 73 77 81 89 93 92 86 79 64 54 46 38 29 24 25 26 27 28 29 32 34

GFSNGP_prec_cthk_156.txt.gz
RH
62 62 60 55 54 55 56 59 68 61 64 62 54 46 38 39 48 48 51 53 55 58 64 68 67 68 77 75 71 66 65 63 56 54 47 40 36 34 33 28 25 22 18 17
75 66 62 56 53 51 52 54 58 51 43 38 39 42 47 51 47 46 53 50 55 61 67 69 72 79 77 71 70 68 63 56 51 45 45 41 40 39 35 31 28 23 21 21
71 67 68 70 61 58 47 36 39 48 43 49 52 54 53 47 47 49 46 49 54 69 76 78 80 77 71 73 70 58 51 47 45 47 41 38 37 36 34 37 35 28 24 25
74 71 79 53 51 47 47 48 46 45 53 56 58 51 54 55 51 51 43 47 66 72 78 79 73 76 78 72 48 50 50 49 48 38 34 39 38 38 42 43 40 36 31 28
82 73 61 56 52 51 55 49 50 53 58 60 62 59 59 53 46 42 39 51 69 76 76 76 79 75 64 58 54 53 49 40 39 32 38 38 42 45 47 45 43 41 39 36
87 80 73 55 47 43 49 55 52 50 58 68 70 69 63 47 41 41 46 60 71 78 81 78 75 70 67 63 57 47 42 39 40 36 40 44 48 49 47 49 46 43 42 41
83 75 61 52 54 54 61 55 58 68 72 77 75 61 47 41 42 45 50 65 77 79 78 75 70 61 56 51 45 44 42 43 40 42 47 49 47 46 49 50 51 50 47 46
79 78 69 50 48 50 47 53 58 54 51 58 66 51 45 39 43 46 55 62 77 81 78 78 65 61 54 46 45 45 45 43 45 50 49 47 44 46 48 50 50 49 50 49
70 65 62 62 66 66 66 64 65 73 66 71 65 55 49 45 49 53 58 65 70 80 78 71 62 66 59 51 49 47 46 47 52 51 47 45 46 50 52 53 54 56 55 51
70 65 63 66 67 69 77 81 80 79 76 69 64 61 53 54 53 57 64 67 78 82 76 67 63 65 60 57 53 48 47 51 51 47 44 45 49 54 56 55 57 59 56 53
74 71 69 70 71 73 75 79 78 73 65 56 61 60 57 58 58 60 67 76 85 85 73 65 66 65 59 56 54 49 50 52 48 45 42 44 46 49 54 58 60 60 56 55
83 76 77 82 76 82 84 78 72 64 63 65 65 63 64 58 62 64 72 80 83 79 73 69 70 65 59 56 52 50 53 49 44 40 39 44 47 52 58 64 64 59 55 58
67 72 74 72 78 76 76 73 68 62 52 53 57 56 56 61 64 67 75 83 83 78 72 69 66 63 60 53 52 52 51 44 42 40 44 48 51 52 55 61 63 60 59 62
68 67 65 62 61 59 54 51 49 48 49 53 61 66 62 66 66 68 76 82 78 71 66 65 64 65 57 52 52 54 47 41 40 42 46 49 54 54 57 59 62 61 60 63
56 52 50 46 46 44 44 45 45 47 54 60 68 64 65 66 68 72 79 80 72 65 63 64 65 66 59 52 52 48 43 44 43 46 48 49 54 61 59 59 62 64 64 67
41 43 44 43 40 40 42 45 47 49 50 52 60 62 66 71 73 79 84 77 71 69 64 65 65 63 56 51 48 44 45 45 46 45 48 54 56 58 63 65 64 65 68 73
47 42 42 44 43 46 49 50 49 48 54 65 72 74 74 73 79 89 83 76 74 67 66 65 64 61 55 52 45 41 40 42 44 44 45 49 53 54 59 67 71 70 70 67
60 54 53 49 45 50 52 52 52 54 64 80 84 83 81 77 90 89 78 73 66 67 66 65 67 65 61 52 47 47 47 45 44 44 49 53 55 63 63 66 65 63 63 69
64 56 53 57 60 55 47 46 49 54 60 67 77 80 82 94 95 86 75 66 69 67 67 70 70 63 57 52 54 54 49 50 49 55 56 54 53 52 62 61 60 64 70 68
58 53 46 44 49 56 61 62 61 67 80 83 83 87 96 97 91 82 68 71 71 73 73 73 69 62 55 59 59 51 50 51 52 50 46 49 52 54 54 62 72 74 72 70
61 60 54 53 51 53 59 63 76 90 94 94 92 98 92 84 77 69 70 72 75 74 73 72 70 64 62 60 54 47 47 47 47 46 48 50 51 59 71 77 76 73 69 64
67 64 61 60 64 67 74 83 91 91 91 95 98 89 79 72 70 71 75 76 75 75 75 74 72 69 64 58 53 52 52 51 50 50 52 59 68 76 77 74 71 66 60 52
64 64 65 70 73 77 84 92 95 94 95 95 83 73 70 69 72 73 75 75 77 77 76 76 75 69 64 61 59 57 56 55 57 63 71 79 76 74 72 65 59 50 39 27
70 71 77 83 75 77 77 81 83 84 81 75 69 69 71 70 71 75 77 79 81 79 74 74 74 72 69 67 66 65 65 67 73 83 82 76 71 65 57 49 40 28 24 25
76 82 85 73 68 72 73 71 68 67 68 70 71 70 70 72 75 78 82 82 77 74 76 78 79 76 74 71 71 73 78 87 90 81 74 66 58 50 43 33 25 25 27 28
90 87 76 71 71 67 66 67 69 70 69 68 70 73 75 76 78 80 80 77 77 83 83 82 81 79 76 77 82 90 94 92 82 72 59 52 46 40 31 25 26 27 28 30
86 79 75 75 71 69 69 69 69 69 70 71 74 76 78 80 81 81 84 86 89 90 90 88 83 81 84 88 96 97 94 84 68 54 49 45 40 31 26 26 27 28 31 33

GFSNGP_prec_cthk_159.txt.gz
RH
74 65 62 62 62 66 70 69 74 64 60 62 65 70 66 59 59 51 54 56 52 45 47 52 57 61 65 70 72 65 60 60 59 52 49 47 44 37 36 34 31 32 30 25
83 79 78 71 68 64 59 60 63 59 51 51 52 50 49 52 57 60 55 51 45 45 47 54 64 68 73 75 69 65 64 59 49 48 47 51 46 39 38 36 34 32 28 27
94 79 75 82 62 64 57 55 51 48 43 43 48 52 54 57 59 58 55 47 44 44 45 58 71 72 76 75 72 71 61 46 46 48 48 41 37 40 40 40 42 36 32 32
96 91 96 68 61 58 57 53 53 49 50 52 53 58 61 62 62 61 54 44 43 43 50 60 70 75 74 74 74 62 54 52 51 46 40 39 38 41 45 47 43 37 33 32
94 84 70 60 52 52 54 49 49 48 50 56 62 64 67 67 61 55 45 37 43 51 58 67 73 76 76 72 66 64 60 54 43 41 41 38 40 46 48 46 42 40 38 36
89 81 76 53 52 53 53 47 52 56 55 59 63 62 70 65 63 45 37 41 47 53 61 69 76 73 71 65 59 51 41 39 39 41 41 42 46 49 46 44 44 42 39 38
88 89 66 55 52 54 57 53 52 53 60 66 68 71 73 68 56 47 40 43 49 55 61 66 75 73 69 62 57 51 41 41 41 42 45 50 50 48 46 47 45 42 39 41
91 89 75 56 57 56 49 48 49 50 51 57 58 57 59 60 52 47 43 48 53 58 61 65 69 75 68 60 58 50 42 42 43 46 51 50 48 45 46 46 45 43 43 45
80 74 64 58 57 53 53 54 50 56 62 72 77 75 65 62 53 50 51 52 57 62 65 68 77 74 69 62 58 53 44 42 44 50 52 48 42 43 44 44 44 43 45 45
70 62 64 62 60 60 62 62 69 77 78 80 80 75 66 52 50 53 55 53 58 66 72 79 83 77 71 68 64 52 46 46 50 53 49 45 43 44 44 42 44 47 49 50
70 66 67 67 66 67 70 69 71 73 77 79 77 68 59 60 63 63 61 55 59 65 78 87 85 80 78 74 63 52 49 50 52 50 45 41 40 41 44 48 51 52 53 53
79 71 71 73 72 73 76 79 79 77 85 80 75 64 62 57 54 57 58 59 62 65 79 86 80 78 77 73 62 54 50 51 52 45 41 39 40 44 48 51 51 53 54 57
64 69 74 75 76 74 77 81 78 76 72 71 70 67 52 51 54 61 63 63 65 69 77 83 78 73 72 67 62 54 52 53 48 43 41 41 45 46 50 55 57 57 60 60
65 68 64 63 65 67 67 66 65 63 61 55 54 51 53 64 69 69 64 67 69 72 77 79 73 69 68 66 59 54 53 53 44 42 41 44 47 53 55 53 58 58 61 64
53 55 57 60 61 60 58 55 55 52 45 45 48 52 63 70 74 67 70 72 73 75 76 76 70 70 67 65 58 54 53 50 45 46 47 49 51 51 53 57 54 56 60 66
49 49 50 53 52 51 49 46 44 40 39 43 51 54 60 69 73 69 76 76 76 78 78 74 74 68 67 65 58 54 53 48 47 46 46 45 46 48 47 49 52 57 66 69
52 51 52 49 44 41 40 40 41 44 46 52 58 56 62 67 73 82 84 79 84 83 79 77 70 67 67 65 58 57 50 46 45 44 43 42 43 44 50 55 62 64 59 64
57 58 60 60 55 54 46 42 45 51 54 57 59 64 75 83 85 87 84 87 90 82 79 72 67 67 67 66 63 57 48 47 49 50 47 45 46 52 53 53 49 54 56 57
69 67 53 48 50 55 58 53 46 49 54 55 58 60 74 78 81 84 90 95 91 86 77 70 69 69 72 71 65 55 52 57 56 51 49 50 55 51 44 51 57 55 62 71
68 62 58 55 51 46 46 56 62 64 61 60 62 70 78 83 87 92 98 94 90 82 72 71 73 76 75 70 61 58 64 60 54 51 52 51 46 45 54 58 63 72 75 73
70 66 63 62 56 51 52 50 59 68 73 77 84 89 93 93 96 98 90 83 79 73 72 76 77 77 73 68 70 69 61 56 54 57 56 51 51 55 63 72 77 76 72 69
66 68 65 60 58 57 58 58 64 72 76 90 98 96 93 98 97 89 83 80 76 76 77 78 79 79 78 77 70 63 60 60 62 60 56 56 62 72 80 77 72 69 62 53
65 64 62 64 66 66 71 73 76 83 96 93 94 98 98 94 87 84 79 78 78 80 81 83 86 84 78 70 65 65 64 65 66 63 65 71 83 81 74 69 62 53 44 37
63 66 67 72 74 77 84 81 82 83 82 87 94 95 88 82 80 81 81 80 80 82 85 89 84 77 74 71 70 70 72 73 71 74 83 89 80 72 64 54 46 41 35 28
65 68 72 80 83 87 85 82 87 86 86 86 82 76 76 79 80 80 81 83 85 89 86 81 80 84 82 78 77 78 78 78 83 92 90 80 69 57 49 44 41 36 29 25
76 80 86 89 86 77 72 71 69 69 71 73 76 79 79 79 81 83 85 87 88 87 86 89 90 88 86 83 82 83 85 92 96 91 81 64 53 48 45 42 38 30 25 26
92 92 91 87 82 80 78 75 75 77 79 80 78 79 81 83 86 87 89 90 90 92 94 94 93 89 86 85 87 91 98 98 93 81 61 51 49 46 43 39 31 25 26 31

GFSNGP_prec_cthk_162.txt.gz
RH
96 87 86 86 68 67 69 69 75 57 75 58 60 65 69 73 72 68 57 53 57 62 59 56 48 46 48 58 61 67 70 63 61 60 48 42 42 44 38 33 31 30 33 31
89 81 86 88 82 74 68 66 70 65 60 58 60 66 63 63 59 51 55 53 60 58 58 52 46 46 52 61 69 72 68 66 65 53 45 46 46 40 35 36 34 35 37 33
87 76 85 97 77 83 73 65 67 64 48 56 55 54 55 54 53 54 56 58 59 59 52 43 44 52 58 64 70 71 71 69 59 55 51 50 44 40 37 39 40 39 35 34
93 96 96 68 63 67 70 68 61 52 48 54 55 59 56 58 60 63 64 61 57 46 40 44 51 57 59 67 71 74 71 62 61 58 52 42 40 41 39 44 43 38 36 37
98 97 87 72 66 68 70 62 60 55 50 51 53 55 59 64 65 67 67 58 45 40 42 47 53 58 63 69 73 69 63 55 50 40 39 39 41 41 43 46 42 38 38 36
98 96 93 65 56 58 58 54 53 53 50 53 57 67 63 62 63 62 63 59 52 43 44 49 53 56 60 64 70 65 60 53 50 40 39 41 44 46 48 46 42 40 38 37
98 96 84 67 56 54 59 56 56 48 48 54 62 62 67 69 76 67 59 60 51 46 48 51 53 56 59 62 67 70 61 51 47 40 40 46 50 49 48 44 42 40 38 37
98 97 94 68 61 53 61 59 48 48 48 53 56 61 64 68 60 60 60 54 48 51 52 54 56 59 61 65 69 68 60 52 49 41 43 48 50 47 45 43 41 39 36 37
92 90 79 71 65 53 55 57 55 51 49 55 64 67 67 72 69 63 56 48 52 55 56 58 62 67 72 76 76 70 60 55 50 43 46 49 45 43 42 41 39 37 38 39
90 76 75 70 63 60 60 60 60 58 63 71 73 77 79 75 67 64 63 54 58 60 59 61 64 72 80 83 80 69 62 56 47 44 49 48 45 43 41 39 38 41 44 41
82 77 72 66 62 61 64 65 64 66 68 70 71 75 77 75 72 67 62 57 53 57 57 61 64 70 80 82 77 71 61 53 45 46 50 46 43 40 40 40 42 44 44 43
80 76 75 70 69 68 65 66 70 72 76 75 80 80 79 76 71 63 55 48 54 62 62 64 68 70 80 84 81 72 62 52 46 48 51 44 40 38 41 46 47 47 48 47
58 59 60 63 70 73 74 77 80 82 84 80 76 75 76 74 65 58 52 56 64 68 67 66 70 74 82 87 82 74 62 52 50 52 49 43 40 40 46 51 53 51 51 53
50 54 56 60 62 65 66 69 70 73 72 71 70 69 68 65 63 58 60 66 72 73 72 71 73 77 82 84 81 72 60 55 55 55 47 44 44 46 50 55 54 52 53 49
47 51 54 57 62 67 67 65 64 63 63 61 58 55 55 57 67 62 67 75 77 74 75 76 75 76 80 83 79 70 59 57 57 55 49 47 48 52 55 54 52 50 49 52
44 53 53 52 54 58 60 62 60 55 52 49 47 44 46 52 60 67 67 75 74 76 80 77 79 80 81 80 75 66 61 57 57 54 49 48 50 50 49 49 48 50 55 59
44 48 53 54 53 49 48 50 51 48 43 40 39 42 45 55 62 65 67 72 79 87 83 80 83 80 80 74 72 68 60 58 57 51 49 48 48 49 50 49 50 57 54 52
50 54 59 65 68 64 59 59 57 53 48 48 49 52 57 62 65 72 85 87 89 89 83 87 86 83 76 74 73 66 61 60 56 52 50 53 52 49 50 53 59 52 51 59
62 68 70 67 57 53 51 50 56 59 47 46 54 58 60 64 69 77 85 88 87 86 89 89 90 83 75 74 75 70 67 61 56 57 62 59 51 52 54 55 51 54 61 65
60 72 70 64 60 59 56 54 49 52 61 59 58 60 63 64 69 75 83 87 93 96 92 92 87 80 75 78 78 72 65 60 65 69 62 56 56 59 57 54 59 66 74 80
73 75 77 74 70 68 65 60 54 48 54 65 66 69 71 78 86 92 95 97 98 95 88 86 82 77 80 82 79 73 69 73 72 62 60 60 62 61 59 63 73 82 80 74
84 80 77 75 72 67 63 59 58 55 54 65 72 77 83 92 97 98 98 98 96 87 85 82 78 81 83 83 79 76 78 72 65 64 65 66 65 65 70 81 86 79 72 59
69 67 67 69 68 64 63 61 62 67 72 74 79 87 98 98 97 97 97 93 88 85 80 80 83 85 85 84 85 79 73 73 69 69 71 70 70 76 88 84 76 66 51 44
75 71 66 68 66 66 69 71 71 79 95 98 98 94 94 97 97 93 90 88 84 82 82 85 87 89 93 85 78 79 78 75 75 76 73 75 86 90 82 72 58 48 45 41
77 71 68 67 71 74 78 83 86 86 88 92 92 91 95 97 94 88 85 83 82 82 86 90 92 90 84 84 86 84 80 79 80 79 83 93 89 80 68 54 48 47 43 40
82 79 79 79 82 85 87 84 80 81 83 83 85 86 84 81 81 83 83 84 87 89 91 92 90 92 92 91 88 84 83 84 84 90 95 86 77 63 53 49 48 45 41 37
90 92 95 96 95 94 89 86 83 80 77 76 78 82 84 84 83 84 87 90 92 94 95 96 97 97 95 92 88 87 87 88 96 93 84 77 62 53 50 49 46 42 39 34

GFSNGP_prec_cthk_165.txt.gz
RH
91 93 95 92 90 81 85 78 81 74 69 56 63 67 66 67 62 66 65 66 66 58 58 58 62 63 62 57 46 49 54 61 60 57 57 55 45 40 41 40 30 27 31 33
87 85 90 95 87 78 77 78 77 70 64 60 63 69 68 64 68 65 61 58 53 54 57 62 61 63 59 47 49 56 61 64 60 61 61 52 50 46 46 39 30 30 34 37
90 78 85 93 70 74 72 72 70 71 60 66 70 66 64 62 55 52 56 53 56 59 61 63 60 56 49 48 56 62 66 61 63 64 53 50 49 44 39 37 32 35 40 38
87 86 96 60 58 64 72 71 71 70 68 73 64 57 54 50 54 59 56 58 60 63 60 50 44 44 49 55 61 65 65 64 65 58 47 43 39 36 38 40 37 39 38 37
90 83 78 59 55 64 69 61 73 73 72 69 65 62 51 49 50 52 57 61 65 61 55 52 45 46 52 56 59 63 62 60 59 53 47 45 44 37 42 43 42 40 38 38
91 95 85 50 56 62 69 59 60 63 63 62 57 55 50 48 53 58 61 60 59 57 60 57 51 49 53 55 59 57 58 57 64 57 49 46 44 39 46 47 46 40 38 38
96 96 77 62 70 70 74 61 57 59 59 57 53 50 50 55 60 60 66 70 63 59 55 53 47 50 53 56 58 58 58 58 61 56 51 48 46 44 48 48 44 40 39 35
96 97 91 74 74 80 71 62 56 60 55 56 54 53 55 62 65 69 63 61 64 58 49 49 50 53 55 59 61 64 69 69 64 57 54 50 47 46 48 46 42 41 36 35
91 88 84 89 84 83 73 66 60 58 55 54 50 54 59 62 66 67 67 62 58 54 50 50 54 57 59 60 64 73 79 73 63 60 54 51 46 47 47 44 40 37 36 36
84 87 92 88 87 80 76 70 67 63 57 57 58 65 71 74 77 76 69 65 64 64 62 57 60 63 64 64 68 76 80 72 65 60 53 47 46 48 46 41 37 37 37 38
79 81 84 84 85 81 79 72 69 67 67 67 74 80 81 81 77 74 70 67 66 57 53 50 55 62 66 65 68 73 75 69 66 60 54 47 49 47 43 40 37 38 41 43
75 70 70 72 77 82 80 76 76 73 75 79 81 80 80 83 82 79 75 70 60 58 56 55 61 66 66 65 69 72 77 71 63 59 50 49 51 46 43 42 42 45 47 48
52 49 50 54 62 69 76 77 76 79 82 84 82 85 85 84 84 83 76 66 60 63 61 65 67 68 67 68 71 77 76 68 62 55 50 52 51 45 42 45 47 50 52 52
32 33 37 42 45 55 60 65 69 74 75 73 76 79 79 80 78 75 67 67 71 67 66 71 70 71 73 71 75 84 77 69 62 56 54 55 51 47 47 48 50 54 53 52
24 27 31 33 39 49 56 62 64 65 66 65 69 77 75 70 66 63 73 78 73 71 74 76 73 78 76 74 81 86 82 76 64 58 59 58 53 50 51 54 56 55 53 52
25 28 31 34 37 43 52 51 56 62 64 67 67 65 64 63 61 58 61 67 75 78 73 76 81 85 79 79 87 89 83 74 63 61 62 61 56 52 54 55 54 55 56 56
29 31 36 40 43 43 49 52 52 51 54 54 50 47 46 45 46 49 59 65 75 72 76 84 88 84 81 86 89 86 81 70 66 63 65 61 55 54 56 59 58 57 59 64
31 35 42 54 61 64 70 67 62 59 54 51 51 49 49 48 47 51 64 80 81 83 88 88 88 82 84 91 91 88 78 71 65 66 66 60 55 59 62 61 57 60 62 60
39 41 41 48 69 73 68 61 57 53 52 60 60 51 49 53 59 65 71 79 85 87 91 89 83 83 90 92 90 85 76 69 69 70 65 60 64 68 64 58 60 63 61 61
43 50 51 53 75 79 72 70 65 59 56 51 61 61 59 61 62 66 72 81 82 87 88 88 90 91 92 88 86 79 76 73 72 69 67 69 71 63 60 61 63 62 65 72
56 58 62 70 82 84 81 76 73 70 62 55 57 64 63 69 73 75 79 81 87 95 97 96 92 94 87 85 81 83 81 78 72 71 75 73 66 66 65 65 65 69 79 87
80 79 73 73 79 81 82 83 74 66 63 60 57 67 71 73 77 84 90 92 96 98 98 94 92 88 85 86 85 87 83 78 79 78 76 74 71 69 68 68 73 87 88 79
75 73 70 74 78 74 71 72 68 65 65 69 67 72 80 86 89 94 98 98 98 98 97 92 90 89 87 85 87 87 85 82 80 80 78 74 73 72 71 77 89 83 74 60
77 74 74 75 76 75 69 67 66 69 74 75 78 82 87 88 92 97 97 97 97 94 91 91 90 86 85 86 90 90 84 84 85 82 78 77 74 73 84 87 76 66 56 49
86 82 80 76 71 69 68 69 72 77 80 85 95 97 98 98 98 94 96 95 91 91 92 89 86 88 91 93 92 88 88 87 84 80 80 77 78 89 84 73 63 55 49 47
86 81 83 84 83 79 77 78 80 82 86 88 89 91 92 91 92 94 93 87 89 89 88 87 89 93 96 96 91 90 89 87 83 83 81 84 90 80 72 62 56 51 49 47
83 82 89 92 92 94 94 93 89 84 82 81 82 82 81 80 82 85 88 89 88 87 91 94 97 98 96 94 94 93 89 86 86 85 90 87 80 75 62 57 54 52 50 48

GFSNGP_prec_cthk_171.txt.gz
RH
87 73 72 68 72 72 72 76 86 75 76 54 54 67 77 77 77 64 69 69 73 78 78 75 74 74 72 71 70 71 69 71 72 69 55 42 42 42 42 42 40 36 32 30
74 62 65 68 66 64 65 69 70 67 66 48 46 65 71 64 75 71 72 74 75 77 81 82 75 76 72 71 71 71 72 73 72 64 47 46 46 46 47 41 39 33 34 37
79 57 62 72 62 58 59 55 55 60 54 47 52 58 67 70 69 66 70 76 77 77 80 84 80 75 72 66 69 72 73 69 59 51 53 52 49 51 47 38 41 36 37 45
75 64 84 43 43 45 46 49 49 56 60 58 50 55 64 68 71 71 71 75 79 79 82 81 82 73 65 67 72 71 60 56 54 59 62 57 55 50 46 45 46 49 51 52
90 79 62 50 34 47 51 53 49 56 61 60 61 67 62 62 75 82 82 82 83 85 80 81 73 66 65 69 66 66 66 64 60 63 59 58 54 49 47 45 46 52 55 55
82 83 72 39 57 59 65 61 66 65 63 63 64 75 69 80 79 79 88 83 79 79 77 76 72 64 65 66 66 64 67 62 62 63 60 60 56 54 52 55 53 55 58 52
86 90 78 79 66 64 79 73 76 67 65 61 66 88 84 81 79 77 82 75 71 75 77 69 62 63 67 69 68 63 60 61 64 65 64 60 60 61 60 63 59 60 53 51
78 83 72 75 73 77 85 81 74 71 71 74 72 80 80 75 74 71 68 65 65 64 63 64 64 72 74 71 65 58 59 64 67 67 66 63 63 64 66 66 62 58 64 59
82 84 93 92 82 78 72 73 76 78 88 88 84 83 78 72 68 70 69 65 66 65 66 70 70 70 68 66 63 65 67 68 70 71 69 66 67 67 69 68 68 66 65 57
69 68 72 73 71 65 68 81 86 92 91 89 85 82 83 80 78 75 73 71 70 68 68 67 68 67 65 67 68 66 59 63 72 75 71 70 71 67 70 69 67 67 63 57
71 65 65 71 72 74 70 69 86 88 89 90 86 84 83 83 81 77 71 69 69 69 71 66 69 71 70 67 65 65 65 70 75 75 72 74 74 68 73 72 70 68 61 54
75 67 69 70 73 61 56 59 77 84 82 85 83 93 87 91 86 82 78 79 77 82 78 73 70 68 66 64 63 67 70 72 74 75 74 76 76 76 73 69 65 61 56 51
64 62 57 51 40 32 31 36 41 45 60 82 83 85 86 92 92 91 92 90 88 82 79 76 72 67 65 64 64 68 69 73 74 76 75 74 76 73 68 66 66 60 51 45
61 46 35 34 28 26 28 30 31 32 39 49 66 86 86 86 94 97 93 91 90 91 89 79 72 69 70 69 72 72 71 74 75 74 73 72 73 72 73 68 65 58 50 49
40 29 23 21 20 20 22 24 29 30 33 39 43 52 68 87 89 91 93 89 91 93 88 82 76 75 76 74 74 74 76 79 78 77 74 71 73 75 73 70 67 62 57 58
29 23 21 21 23 22 22 23 26 28 30 32 41 46 50 61 75 81 84 86 84 82 82 82 74 75 77 79 79 78 82 84 82 79 77 78 77 76 74 72 72 64 61 60
33 23 28 28 30 27 28 29 29 36 36 35 35 40 48 55 62 72 75 75 81 81 79 78 77 84 86 81 79 77 86 87 85 82 85 85 85 78 77 78 77 72 66 63
22 21 24 26 29 32 32 35 37 39 43 45 42 47 58 66 57 63 71 75 72 68 67 66 67 74 82 87 83 89 93 90 87 88 90 91 88 81 82 82 84 76 72 72
22 27 30 32 34 37 42 47 54 62 60 58 55 63 65 64 64 67 62 64 65 63 60 60 63 73 82 92 93 96 96 89 92 95 95 93 87 83 82 85 84 80 82 78
25 28 33 37 41 42 49 58 66 68 79 77 81 75 71 68 63 63 73 71 64 62 62 67 74 86 92 93 95 96 96 94 95 96 96 93 90 84 82 83 84 87 85 82
32 37 40 40 53 57 61 70 73 69 77 82 86 79 74 69 68 62 66 71 65 64 71 76 87 91 92 96 95 95 97 95 97 96 95 92 90 85 83 83 85 84 88 79
36 39 41 52 68 74 73 70 70 70 74 79 78 77 79 74 72 68 68 72 72 75 77 82 83 88 94 96 95 97 96 97 97 96 94 93 88 87 88 85 84 89 82 78
38 40 48 65 85 87 78 68 66 70 78 81 76 73 78 77 76 72 71 71 73 79 85 88 91 94 98 96 97 97 98 96 95 94 93 93 93 91 88 89 89 83 81 79
40 44 59 78 92 90 81 71 69 72 76 78 74 69 72 73 73 73 74 79 83 90 94 98 99 99 98 98 97 98 95 94 94 94 96 96 94 90 92 91 85 83 81 81
46 54 65 79 88 88 82 78 74 74 71 74 74 72 72 72 77 83 84 90 90 92 93 97 96 97 98 98 97 96 95 97 97 97 97 97 95 97 93 87 85 84 87 89
45 58 69 81 88 89 83 85 87 83 80 76 75 75 78 82 86 91 97 98 98 98 97 97 98 98 98 98 97 96 98 98 98 98 95 97 97 94 89 84 86 92 91 78
50 63 73 85 89 90 88 90 90 89 90 91 89 84 84 88 94 95 96 97 98 98 98 98 97 97 98 97 97 98 98 98 98 97 97 96 93 89 86 85 93 89 74 65

GFSNGP_prec_cthk_174.txt.gz
RH
78 68 67 71 71 72 73 82 93 82 82 62 51 56 58 56 66 70 58 68 67 70 69 68 74 83 85 84 85 81 80 72 73 71 68 67 64 55 38 39 40 41 34 32
82 66 65 72 66 55 53 59 62 61 66 55 48 45 52 52 53 67 66 62 66 69 72 71 75 84 90 88 86 81 76 76 71 68 69 67 52 43 42 42 42 37 33 30
88 69 71 83 65 60 56 52 53 56 49 44 44 44 43 45 46 57 65 75 71 71 76 76 78 86 92 90 87 85 80 73 69 70 61 48 46 45 45 43 40 33 31 36
83 79 95 50 44 40 43 42 41 42 43 52 57 56 60 46 53 50 56 72 69 80 83 80 81 86 95 91 87 85 77 74 73 60 59 51 49 46 45 45 38 36 38 46
88 82 67 56 36 51 61 58 54 61 64 56 61 68 51 59 60 68 66 62 76 85 91 91 84 91 91 91 82 81 77 70 66 66 62 61 56 51 50 47 47 47 46 52
75 77 70 37 44 67 68 63 60 63 77 68 77 75 70 79 80 84 82 73 74 87 96 94 93 90 92 85 81 73 67 67 64 65 62 60 54 54 51 49 51 51 52 57
96 97 83 57 52 72 73 90 75 85 79 79 79 67 63 63 69 76 88 81 87 93 91 91 91 93 90 81 67 66 69 70 65 62 60 59 56 56 55 54 52 52 52 57
83 84 75 75 72 89 88 81 79 83 76 69 62 60 63 63 68 92 84 89 83 88 89 89 90 89 78 67 70 74 76 68 63 60 62 61 61 60 59 58 55 55 55 59
78 79 76 82 86 81 72 73 68 67 65 66 63 63 74 78 76 83 85 85 83 80 83 84 76 67 69 73 71 70 67 65 65 70 65 60 61 63 62 61 58 57 62 69
79 74 65 77 75 84 64 60 51 59 70 71 73 75 85 87 92 87 79 81 80 77 74 71 72 73 73 67 63 63 64 67 65 65 60 62 67 66 64 63 61 60 68 71
90 75 74 75 69 64 64 56 52 56 69 76 76 84 93 92 86 90 88 85 83 78 76 76 74 72 66 68 67 67 69 69 68 69 69 66 69 67 66 66 65 68 71 73
95 82 82 70 68 57 46 38 42 45 47 62 74 86 88 98 96 91 89 85 83 79 75 74 75 77 74 69 67 66 67 67 67 68 70 67 70 71 72 74 72 71 73 71
75 71 62 53 48 41 36 28 27 31 30 41 49 59 82 86 90 97 89 87 86 83 84 83 85 82 75 70 68 65 66 67 70 73 71 69 70 72 70 72 73 72 72 73
56 58 56 55 38 32 25 25 24 25 28 30 35 40 43 63 74 85 92 94 93 94 94 90 85 82 78 72 69 70 71 72 72 73 71 73 72 73 70 68 70 71 72 72
62 59 46 32 23 19 23 25 26 26 26 27 28 33 39 42 51 71 79 87 97 96 94 95 94 87 82 77 76 75 75 76 76 73 77 79 75 74 69 68 72 69 69 69
72 44 36 27 22 27 27 27 29 27 27 27 28 29 31 37 41 46 59 78 84 93 94 93 93 88 84 78 80 80 82 82 77 75 81 81 78 75 74 74 75 73 71 70
66 43 31 30 31 31 29 30 29 30 30 33 35 35 35 32 31 34 44 64 81 86 91 95 88 85 87 86 88 91 88 82 76 80 86 87 83 77 78 82 81 79 77 73
51 39 45 38 28 26 28 29 29 31 33 34 37 40 44 45 43 45 47 48 67 77 84 86 87 87 85 87 86 82 83 86 87 90 92 88 83 81 84 85 85 82 81 80
58 41 37 28 26 27 29 32 36 39 44 49 55 61 69 70 59 53 55 62 65 70 70 76 74 72 75 80 80 78 74 91 95 96 89 89 88 87 88 89 86 85 85 82
56 38 25 26 29 30 34 40 52 55 56 63 62 65 71 79 77 67 69 70 76 77 75 74 75 77 76 77 75 76 87 97 97 95 93 93 93 92 91 90 88 86 85 84
30 27 29 31 34 35 38 51 66 67 64 64 64 70 82 78 84 78 76 75 71 76 78 78 73 71 71 77 80 93 96 96 96 95 97 96 96 95 92 91 89 87 86 86
34 34 34 35 37 41 49 71 78 74 63 65 63 69 81 83 80 81 78 76 74 76 78 77 74 74 78 86 94 92 97 98 96 98 98 97 96 97 94 92 89 89 91 87
39 37 36 38 42 44 60 79 80 74 66 69 72 80 83 80 79 84 84 81 76 78 78 78 80 86 91 93 89 86 95 95 96 97 97 98 98 97 95 92 92 92 90 92
42 44 47 50 47 50 63 72 76 78 72 69 70 76 80 73 74 78 79 78 78 80 78 80 83 91 96 95 94 95 98 98 98 97 97 97 98 97 94 94 93 91 93 91
54 50 45 46 51 56 65 77 82 81 85 79 79 76 77 78 77 76 76 75 79 81 83 88 94 98 98 98 97 97 98 98 98 97 98 97 98 98 97 96 93 95 91 86
63 60 54 49 51 61 70 80 87 89 89 89 86 85 82 80 80 81 81 81 85 86 90 97 93 94 96 98 98 98 98 98 98 98 97 98 98 98 97 97 97 92 88 85
71 63 56 48 54 68 76 87 90 92 92 93 91 91 89 88 86 84 87 89 92 94 97 97 97 98 98 98 98 98 98 98 98 98 98 98 98 97 98 96 90 88 86 93

GFSNGP_prec_cthk_177.txt.gz
RH
83 73 74 74 73 73 75 78 90 64 77 61 54 60 61 65 63 68 67 68 66 62 61 61 61 65 67 68 70 78 82 83 89 91 86 79 75 67 64 54 39 38 36 35
90 75 76 77 68 59 64 64 66 66 63 53 54 56 56 58 60 59 65 61 59 55 62 62 65 69 70 70 78 83 87 89 94 90 86 79 72 68 56 41 39 38 38 33
81 73 77 86 54 54 51 56 62 64 54 55 53 51 51 62 67 65 67 62 55 51 53 64 69 72 75 78 82 87 94 95 93 89 82 77 72 59 50 45 41 37 39 31
89 79 90 51 40 46 57 55 47 54 64 59 56 51 54 56 57 58 63 69 68 55 56 63 75 79 81 85 89 93 98 96 90 89 83 77 64 60 55 49 43 38 37 37
84 73 61 44 35 57 67 62 64 68 69 64 63 61 60 61 63 61 68 70 80 83 80 72 71 85 92 94 94 99 93 90 91 84 82 70 64 60 54 49 43 37 44 44
75 83 75 36 49 68 70 71 64 66 68 74 72 66 67 69 61 62 59 61 69 70 79 97 90 91 97 98 98 95 86 83 87 82 74 63 63 59 56 48 48 43 48 51
85 92 70 56 63 69 78 77 77 78 70 69 75 71 62 62 54 51 55 54 64 71 80 93 95 95 99 98 95 91 89 84 78 75 71 66 62 61 55 53 54 51 50 49
93 96 95 83 78 81 76 79 82 75 72 70 68 62 56 55 53 58 68 78 74 78 90 95 93 95 97 98 95 88 80 78 77 74 67 64 63 61 56 52 51 53 51 50
74 82 79 78 78 86 73 66 59 57 60 58 59 64 66 68 67 71 88 92 83 83 86 92 98 98 96 90 84 80 73 69 70 66 64 67 64 57 53 54 55 55 52 49
68 61 64 69 69 83 70 63 47 46 51 53 61 73 73 77 82 87 90 87 91 89 88 90 97 91 88 86 81 73 66 64 65 65 67 68 64 63 63 59 58 58 52 50
53 56 69 89 91 83 62 54 42 40 41 46 58 75 84 87 86 94 96 88 87 87 91 88 86 85 83 79 72 66 68 68 68 66 68 72 70 67 66 61 58 56 54 55
67 74 95 95 89 80 62 47 36 32 34 32 45 54 59 63 89 96 98 87 84 86 82 82 81 78 73 72 69 69 68 67 68 67 70 72 71 71 70 66 62 59 56 57
71 78 81 87 83 62 46 37 33 28 26 28 30 32 33 39 50 70 98 98 90 87 82 81 78 76 77 79 83 74 69 68 71 70 70 72 71 71 68 70 69 64 60 63
64 56 62 76 68 52 31 25 24 23 22 27 28 31 31 29 33 40 56 75 86 91 93 90 88 83 84 82 80 76 73 73 73 72 70 72 73 73 70 69 67 65 67 67
56 70 67 62 53 32 23 25 28 25 21 21 23 24 30 42 37 37 40 47 54 76 94 97 96 93 94 91 84 81 81 78 79 77 74 78 77 78 77 74 69 68 70 71
71 77 69 55 34 29 30 27 26 25 24 23 21 23 27 32 38 45 43 40 42 50 67 89 96 98 96 92 86 84 83 80 82 84 79 77 77 81 82 79 74 70 71 74
74 69 66 40 50 49 37 30 25 23 21 23 24 25 26 28 32 38 43 47 46 46 62 75 90 97 98 94 92 90 88 88 89 88 84 78 84 88 85 81 74 72 75 75
72 70 59 56 40 34 26 24 25 25 25 26 29 34 37 39 41 46 48 49 50 47 50 66 90 98 98 95 90 89 90 88 88 87 89 86 89 90 87 82 79 76 78 77
81 73 56 39 34 37 27 25 25 27 29 33 46 54 51 50 50 56 62 70 62 56 55 56 71 88 97 96 90 85 84 82 83 85 87 92 95 91 84 82 82 83 84 81
68 72 59 44 40 27 25 26 28 30 36 55 63 64 56 56 61 67 68 74 77 65 64 69 74 81 84 87 83 85 87 89 86 84 88 97 97 91 86 84 86 88 88 84
94 75 48 41 32 30 31 32 34 38 55 66 69 60 56 59 67 79 71 78 81 75 74 80 88 88 88 89 87 87 83 80 84 91 98 98 96 92 92 89 89 91 89 87
65 53 46 36 33 32 32 36 38 48 56 66 70 60 61 65 75 81 83 81 83 83 83 83 84 91 93 90 84 81 84 90 95 98 98 98 97 96 95 94 94 93 92 90
46 43 37 36 36 38 38 40 45 47 57 69 74 69 64 71 82 82 79 82 86 85 84 85 85 90 91 90 87 88 91 97 98 96 98 98 97 97 96 97 96 94 93 93
40 41 42 41 42 44 48 49 50 54 63 75 77 78 71 69 77 78 77 82 88 88 87 85 87 90 91 92 92 91 97 98 98 98 98 98 97 97 97 97 97 96 95 95
52 51 52 54 55 53 52 54 54 57 70 79 81 81 80 78 76 77 76 77 77 76 80 84 86 89 90 91 94 96 97 98 97 97 98 98 97 98 98 98 98 98 97 97
54 58 56 55 56 59 59 57 58 63 76 82 84 83 84 82 82 78 75 77 81 82 81 84 86 88 93 95 96 97 98 98 98 98 97 97 97 98 98 98 98 98 98 98
84 82 77 74 64 57 55 60 63 74 84 85 87 89 88 86 85 85 86 87 85 88 89 88 90 92 97 98 98 98 98 98 98 98 98 98 98 98 98 98 98 98 98 96

GFSNGP_prec_cthk_183.txt.gz
RH
98 97 98 96 92 92 83 77 81 75 71 62 64 68 65 61 61 66 65 63 61 61 64 66 76 80 87 90 93 93 91 91 88 82 73 70 67 71 79 97 87 83 78 71
90 89 97 97 88 87 80 76 74 71 65 60 54 57 57 55 49 50 53 52 51 51 49 52 64 72 78 80 81 85 88 92 92 89 80 73 73 75 89 97 90 87 79 72
86 83 90 94 69 72 76 71 69 73 57 56 56 62 60 57 57 55 53 53 50 49 50 46 43 48 54 70 79 86 84 89 93 92 87 78 80 81 95 96 93 87 80 66
95 90 94 59 55 58 67 63 64 58 53 57 57 61 62 57 53 51 50 45 43 42 42 45 49 50 57 60 70 86 86 87 95 92 95 87 83 85 96 98 91 87 71 64
92 84 67 63 57 58 59 44 44 50 50 52 54 54 53 50 49 47 48 47 45 44 43 40 42 50 59 64 70 86 95 89 91 97 97 84 86 97 98 96 88 78 70 62
97 94 78 56 58 50 46 51 47 52 55 53 55 58 53 55 50 49 49 47 48 47 47 49 50 53 57 62 67 85 94 92 93 98 93 86 93 98 98 91 82 76 67 59
98 97 84 72 66 60 54 51 60 63 67 68 67 64 64 57 53 51 47 45 44 44 45 48 54 54 59 71 79 88 92 97 91 94 92 98 98 98 96 86 78 68 61 50
98 97 96 89 85 69 68 67 63 64 67 61 57 57 57 54 47 41 39 40 42 46 52 55 57 63 66 70 76 81 84 93 95 96 98 97 98 99 86 81 74 64 56 53
97 96 97 88 83 74 74 67 67 61 62 57 53 52 51 43 41 39 47 50 56 61 72 79 84 86 78 91 93 86 88 98 98 98 98 98 98 93 83 71 65 65 57 50
87 92 89 90 84 75 62 62 63 59 60 56 50 46 42 39 38 41 46 59 74 87 94 95 98 95 89 92 96 97 97 98 98 98 98 98 97 85 70 65 68 63 57 56
85 80 80 88 76 71 62 62 61 60 64 51 39 35 33 29 25 30 40 60 83 96 94 98 98 98 97 98 98 98 98 98 98 98 94 87 80 73 70 68 71 62 57 55
80 78 67 60 62 61 69 67 73 73 68 48 34 28 23 24 21 23 43 71 91 92 88 93 92 95 98 98 98 95 95 95 93 88 80 76 73 69 67 68 64 62 61 60
42 58 61 62 68 67 74 85 87 82 62 40 29 26 24 26 24 22 32 44 59 73 81 82 83 89 92 94 93 89 86 82 80 78 77 74 69 68 71 72 69 68 68 68
49 56 58 61 68 70 74 72 68 55 38 27 25 25 26 27 29 26 26 31 38 41 42 46 60 72 85 85 84 84 85 83 80 78 76 74 74 75 77 75 72 71 71 74
45 50 54 62 68 76 79 71 58 46 29 23 23 24 25 26 29 32 34 31 30 34 37 36 39 47 63 76 85 84 84 86 86 85 80 79 80 81 81 79 76 76 75 74
45 43 52 63 63 69 74 71 61 43 30 27 25 22 21 23 28 33 37 38 37 37 39 40 41 40 53 60 72 79 92 92 89 85 85 86 86 84 82 82 82 81 79 76
51 52 50 56 65 69 74 73 58 41 35 30 21 16 19 22 26 31 31 33 37 40 46 46 45 48 53 56 66 79 82 90 91 90 90 89 88 86 88 88 85 82 84 83
51 60 58 61 68 71 72 68 47 41 34 26 21 23 24 25 28 29 33 39 43 44 43 46 49 53 55 62 68 85 88 90 89 89 89 91 91 93 93 92 87 89 89 88
47 54 62 74 85 86 77 62 58 48 31 28 29 28 27 29 30 32 42 52 47 41 44 46 53 60 60 59 74 95 98 95 94 95 97 96 97 95 94 93 91 93 93 92
54 70 88 82 89 87 73 64 47 32 32 34 33 28 30 31 36 42 56 59 53 47 50 58 70 64 68 70 70 85 98 98 99 98 98 97 98 97 94 90 92 95 97 95
77 92 99 97 86 81 75 55 39 38 39 37 34 36 35 37 39 43 54 62 63 57 59 74 75 68 79 80 71 78 95 97 98 99 97 98 98 99 97 98 97 94 97 97
91 88 88 92 80 69 55 44 42 43 45 47 42 39 41 44 45 47 55 64 66 63 66 73 75 72 75 79 70 70 84 87 96 97 97 98 97 98 98 98 98 97 98 97
84 78 76 76 68 61 56 52 51 54 55 54 46 45 48 49 46 48 60 66 67 66 70 76 77 78 80 81 74 69 75 84 89 94 97 98 98 99 98 98 98 98 98 98
66 67 65 64 63 66 67 64 62 59 57 57 56 51 51 53 51 56 67 71 71 68 73 77 79 86 87 85 90 90 85 89 98 98 97 95 95 98 97 97 97 98 98 98
48 51 54 54 56 58 58 58 57 57 56 57 55 54 56 57 58 65 71 72 73 72 73 78 79 81 90 89 91 95 94 97 98 98 98 98 95 97 97 98 98 98 98 97
53 57 56 54 55 58 62 65 65 62 59 58 58 60 60 60 66 74 76 77 76 77 79 79 81 81 80 86 94 95 95 97 97 95 95 98 96 97 98 98 98 98 98 98
82 70 67 68 77 83 88 87 85 77 68 67 68 67 67 74 78 76 79 81 82 82 84 89 92 91 89 89 88 93 95 97 98 98 98 97 97 97 98 98 98 98 98 98